GFSSGP_925_thetae_081.txt.gz
Theta_e
311 315 317 320 321 321 320 319 320 320 321 321 324 325 327 329 326 334 342 343 344 346 346 343 337 338 337 344 344 339 335 339 337 336 334 330 335 336 336 336 337 336 338 338 337 336 336 334 332
318 317 319 323 320 323 323 321 320 321 321 321 324 326 326 327 330 335 340 342 343 346 345 345 339 336 337 339 344 341 338 341 340 336 333 333 336 335 336 336 336 335 337 337 336 336 334 332 329
319 320 324 323 323 323 323 321 321 322 321 321 325 327 328 329 334 337 341 341 343 345 346 344 342 335 336 337 343 342 339 340 339 336 332 336 335 336 337 336 335 335 336 336 335 334 331 328 328
320 321 321 319 322 323 322 321 322 321 321 322 324 324 329 333 336 338 340 340 341 342 346 344 342 334 335 337 338 340 338 337 339 337 334 335 336 336 336 336 335 334 334 334 333 331 328 326 325
320 322 322 322 322 322 321 321 321 322 323 324 325 324 326 332 337 338 338 338 339 342 343 344 341 336 335 334 335 336 334 330 337 335 335 335 337 337 336 335 334 333 333 332 330 329 326 324 324
321 321 323 322 322 322 321 321 322 323 324 325 324 324 324 333 334 337 338 338 338 340 342 342 340 337 332 333 330 328 328 324 335 334 333 335 337 336 335 333 331 330 330 329 328 327 325 324 323
321 323 323 322 321 321 321 321 323 323 322 323 325 324 325 331 333 336 334 335 336 338 340 340 339 337 334 330 328 326 329 327 333 333 332 333 333 335 333 330 330 330 328 326 326 324 324 322 322
321 322 321 322 321 321 321 320 322 322 322 326 323 322 324 333 333 334 335 335 335 335 336 340 337 335 332 330 327 328 330 332 333 333 333 331 333 333 330 330 330 328 326 323 319 321 322 319 319
320 320 321 322 321 320 321 320 321 322 322 322 324 326 328 331 333 334 335 333 333 331 332 334 334 335 333 331 330 330 331 332 333 332 332 329 330 330 330 330 330 328 325 320 317 318 317 317 318
320 320 320 322 320 320 320 320 320 320 321 323 325 327 331 331 332 333 334 333 332 333 330 331 331 332 331 332 332 331 332 333 332 330 329 330 329 329 330 330 331 329 324 317 313 312 313 316 317
320 320 320 321 319 319 320 320 320 320 321 321 324 323 326 332 332 332 333 334 333 333 332 329 330 331 332 330 331 331 331 332 332 332 329 327 327 327 326 330 330 328 322 318 316 313 316 317 316
319 319 319 320 319 318 319 319 320 320 321 321 323 324 325 331 331 331 332 333 333 333 332 329 328 329 331 330 329 331 330 331 331 330 330 329 327 324 327 328 327 326 319 318 316 317 318 318 317
319 319 319 319 318 318 318 318 319 319 320 321 323 325 327 329 330 330 331 332 333 332 333 331 330 328 327 328 328 327 331 331 330 328 328 327 326 326 325 323 326 323 321 320 318 320 319 319 318
319 319 319 319 319 318 318 318 318 319 320 323 325 327 328 329 330 330 331 332 331 331 331 331 330 329 328 328 329 327 327 328 329 328 327 327 324 325 320 322 324 323 322 321 320 321 319 319 318
318 318 319 319 319 319 318 318 318 319 320 323 326 329 328 330 330 331 331 331 331 330 329 329 329 325 327 326 325 326 326 324 326 325 324 323 322 323 323 323 324 325 323 322 322 320 317 317 318
318 319 320 320 320 320 318 318 319 320 325 325 326 328 329 331 331 330 331 331 330 329 328 329 328 327 326 325 324 324 322 321 320 319 319 321 320 321 323 322 323 324 324 322 320 318 317 316 317
319 320 321 322 320 319 318 319 321 323 324 325 325 328 329 331 332 331 331 330 329 328 326 327 328 326 326 325 324 322 321 320 320 321 320 316 316 317 317 318 319 321 321 320 320 318 317 317 316
318 320 321 322 322 319 321 322 322 323 322 323 324 326 329 331 332 331 331 330 329 328 326 326 326 324 323 322 323 322 320 318 317 316 314 314 313 313 315 315 315 316 317 316 317 316 316 316 316
319 321 323 323 321 320 321 320 320 322 321 321 323 323 327 330 331 332 331 330 329 327 325 326 324 323 322 322 322 321 319 318 316 314 314 314 315 314 314 314 313 313 313 314 315 315 315 315 314
319 321 322 322 321 319 320 320 320 320 320 320 322 323 326 327 330 333 332 330 329 326 325 325 325 323 321 322 322 320 320 317 315 314 312 313 313 313 314 314 316 314 314 314 315 315 316 316 316
320 322 322 322 322 320 320 321 322 321 320 320 321 323 323 326 329 333 332 331 329 327 325 324 324 323 323 322 322 320 318 318 316 314 311 312 313 314 315 318 316 313 318 319 319 319 320 321 318
322 321 321 321 321 322 322 324 323 322 320 320 323 323 323 324 328 332 332 331 329 327 324 323 323 323 323 323 322 320 318 317 317 315 314 314 313 315 316 317 316 318 321 320 320 321 320 320 321
320 320 320 320 321 322 322 323 323 323 322 321 322 323 323 325 326 331 332 330 329 327 325 323 323 322 322 322 322 321 320 318 318 316 314 314 313 314 315 315 318 318 318 321 320 318 320 319 321
318 318 319 320 321 323 323 323 324 323 323 323 323 322 323 325 326 330 331 329 329 328 325 323 324 323 322 323 323 323 321 321 319 317 316 315 313 314 316 316 316 315 318 320 320 320 321 321 322
318 320 323 324 325 325 323 324 324 323 322 323 323 323 322 323 327 329 331 331 329 328 325 323 324 323 323 322 322 323 323 321 320 317 316 316 316 316 315 316 316 315 316 320 320 320 319 321 321
318 319 322 326 330 328 325 323 323 322 323 322 322 323 323 324 326 328 330 331 329 328 326 324 324 324 323 322 322 323 324 323 321 319 317 317 316 315 315 316 315 315 316 316 320 320 320 323 321
319 320 319 324 325 327 327 325 324 322 322 323 323 323 323 323 324 327 329 331 329 328 327 325 324 325 324 323 322 323 324 323 322 321 319 318 317 316 315 315 316 316 316 316 319 319 319 321 319
318 319 321 321 327 328 325 325 326 323 322 323 324 325 325 324 325 328 329 331 329 329 327 325 323 325 325 324 323 323 323 323 323 322 322 321 320 319 318 318 317 317 316 317 318 319 320 321 321
318 318 322 324 324 329 330 327 325 323 322 323 324 324 324 325 327 327 329 329 329 329 328 327 324 324 325 325 325 325 324 323 324 324 324 324 323 322 320 320 319 318 318 319 319 320 321 322 322
318 318 320 325 326 326 326 327 322 323 323 323 325 323 323 324 325 328 328 330 329 329 329 328 326 323 324 325 325 325 325 325 324 324 324 324 324 322 321 321 320 320 320 321 321 321 321 321 322

GFSSGP_925_thetae_084.txt.gz
Theta_e
316 312 316 319 321 322 322 322 321 321 321 322 322 323 325 325 325 341 342 345 346 348 345 339 336 335 339 344 344 342 338 338 339 336 330 332 335 335 335 335 335 336 337 338 338 338 337 336 332
317 318 318 320 324 322 323 322 321 321 322 322 321 322 323 324 331 338 344 343 345 348 347 345 338 337 336 342 344 342 340 339 339 335 331 334 335 335 336 336 336 337 336 338 337 336 336 333 331
316 321 321 324 325 323 324 322 322 322 322 320 321 325 325 331 335 337 341 342 344 346 346 346 344 336 336 337 343 343 339 339 338 334 333 335 335 335 335 336 336 336 336 337 336 335 332 330 329
320 321 321 322 321 321 324 323 322 322 322 321 322 322 327 331 332 338 341 340 342 344 347 345 343 338 334 337 341 342 340 339 339 335 332 336 335 335 335 335 334 336 335 336 334 332 329 328 328
319 322 323 323 323 323 323 322 321 322 323 323 323 324 327 334 338 338 339 339 341 344 345 345 342 339 335 337 338 337 336 333 331 334 332 335 336 335 334 334 334 334 335 334 332 329 328 328 326
321 321 321 323 324 323 322 322 321 322 323 324 324 323 329 336 336 337 339 339 340 341 344 344 343 339 336 337 337 335 331 327 326 326 332 333 336 335 335 334 333 333 333 331 330 327 325 324 324
321 321 322 323 324 323 322 322 322 323 323 322 325 325 327 334 336 339 337 337 337 338 341 339 341 339 336 332 332 330 328 327 324 326 325 334 335 335 335 334 333 333 331 329 326 324 323 321 324
319 321 321 322 323 322 322 322 321 322 322 325 323 321 325 335 336 336 336 336 336 336 338 339 339 339 335 332 331 328 327 327 327 326 329 334 331 333 334 332 331 330 329 326 325 324 322 320 321
319 320 321 322 322 322 322 321 321 321 322 321 322 323 324 334 335 334 336 334 334 331 332 336 337 335 334 333 331 329 325 329 325 326 333 332 331 333 331 331 330 328 326 324 324 324 321 320 320
319 321 321 320 322 321 321 321 320 320 321 322 323 325 329 330 333 333 337 337 333 333 330 332 335 336 333 331 330 329 328 329 329 325 331 331 330 330 329 330 329 326 322 322 322 321 317 317 316
319 321 321 321 321 320 320 321 321 320 320 321 322 324 327 332 331 332 332 335 334 333 332 330 332 333 333 333 332 332 332 331 332 331 331 329 329 327 328 327 328 325 320 320 318 316 316 313 318
319 320 320 321 321 320 319 319 320 320 321 322 321 322 324 324 331 331 331 334 334 334 332 331 330 331 332 331 330 331 331 331 332 331 330 329 328 327 325 326 328 324 320 316 313 313 318 315 318
319 319 319 320 320 319 319 319 319 319 322 320 320 322 324 325 328 330 330 334 334 333 333 331 330 330 330 330 329 330 330 330 330 331 330 328 328 327 325 326 327 323 317 317 310 318 317 315 317
319 319 319 320 319 319 320 319 319 319 319 320 321 323 325 327 328 329 330 331 333 332 334 332 331 330 329 328 328 329 329 330 331 330 331 329 327 327 325 327 324 321 317 313 317 320 318 318 318
319 319 319 320 320 320 320 320 319 320 320 319 322 324 327 328 329 330 331 332 332 331 334 332 330 329 328 329 328 328 327 328 329 329 330 329 328 326 326 325 323 322 320 316 320 320 320 319 319
320 319 319 320 319 320 320 319 321 321 320 320 321 325 328 328 329 329 330 331 332 331 332 331 329 327 327 325 325 324 325 325 325 326 328 328 326 325 324 323 320 324 323 320 321 320 318 319 319
319 320 320 320 320 321 321 321 321 321 320 322 325 325 327 328 330 330 331 331 331 330 329 330 327 327 326 325 324 323 322 321 322 325 326 325 324 321 320 320 322 324 323 322 319 317 318 317 318
321 321 320 321 321 322 321 320 320 322 323 324 324 324 326 328 330 331 331 331 330 329 328 329 327 326 326 325 323 320 320 318 318 317 317 319 321 319 319 322 322 322 322 321 319 318 317 317 317
320 320 320 320 322 323 322 321 321 322 323 324 323 324 324 327 330 331 331 331 330 329 327 327 327 326 324 323 322 320 319 318 318 319 321 321 320 319 320 319 321 321 320 319 318 316 316 316 316
320 319 320 322 322 322 321 321 321 322 321 322 322 322 323 325 328 333 333 331 330 329 327 327 326 325 323 323 322 320 319 318 317 317 315 315 316 317 315 315 318 318 318 317 316 315 316 315 316
317 320 320 321 322 322 322 321 322 322 322 322 322 321 322 324 327 334 334 332 331 329 327 326 325 323 322 323 322 320 318 316 314 314 316 316 315 314 315 315 315 315 314 313 314 314 315 316 315
319 319 320 321 322 325 323 324 323 323 324 324 323 322 323 323 327 333 334 333 332 329 327 325 324 323 323 323 321 319 317 316 314 313 314 314 314 315 314 314 313 316 315 315 314 316 315 319 317
321 319 321 322 323 324 322 323 323 323 323 323 322 322 324 324 325 331 335 333 332 330 327 325 323 323 323 323 321 319 318 315 315 313 312 313 314 315 315 316 315 316 318 317 317 318 319 321 320
320 322 321 322 323 326 323 323 324 323 324 323 323 324 325 324 325 327 334 332 331 330 327 324 323 323 323 323 321 320 318 316 315 313 312 313 315 316 314 317 318 316 318 319 319 320 320 320 320
318 321 326 327 326 327 321 323 324 324 324 324 324 324 324 325 326 327 334 332 331 330 327 324 323 323 323 323 322 321 319 317 316 315 314 313 315 315 316 316 318 316 317 319 320 319 319 318 318
319 319 327 330 332 327 322 324 324 324 323 323 323 323 324 325 328 328 332 332 331 330 327 325 324 323 322 324 323 323 320 318 317 316 315 314 314 314 315 316 316 315 316 318 318 318 318 318 317
321 321 319 323 323 330 332 324 324 323 323 323 322 324 324 325 326 327 330 332 331 330 328 325 325 325 323 323 323 323 323 321 319 317 316 315 315 314 314 317 316 316 316 315 316 317 317 317 317
319 319 323 324 329 337 329 327 326 324 323 323 324 326 325 325 325 325 327 332 331 330 329 325 325 326 324 323 323 323 324 322 321 320 318 316 315 315 315 315 316 316 316 317 317 317 318 319 319
319 322 323 325 325 337 338 330 327 326 325 326 326 326 326 327 328 327 328 332 331 330 330 328 326 325 326 324 323 322 324 325 323 323 321 318 316 316 315 315 315 316 316 316 317 317 318 319 319
319 320 321 329 333 328 330 331 325 325 324 324 325 323 324 325 326 328 329 330 331 331 330 329 327 325 327 326 324 323 323 323 324 324 323 321 319 317 316 315 316 316 317 317 317 318 318 318 320

GFSSGP_925_thetae_090.txt.gz
Theta_e
316 316 312 314 314 311 315 315 315 316 319 318 319 319 321 327 327 331 342 344 345 341 338 340 341 338 336 335 333 331 330 330 331 331 331 332 333 333 333 333 334 336 339 341 339 338 337 339 335
313 315 314 309 313 316 315 316 317 316 318 317 319 319 333 343 342 343 343 345 345 342 339 337 338 340 340 338 336 333 331 331 331 330 329 329 329 328 328 330 332 334 336 338 336 335 336 335 333
315 317 313 311 311 315 317 317 317 317 317 317 318 319 328 337 343 343 342 343 346 344 343 338 336 336 338 340 340 336 333 332 332 330 328 329 330 330 328 329 333 334 335 335 336 335 335 332 332
314 314 311 315 318 317 316 318 318 317 317 317 316 327 329 334 342 341 344 345 346 345 345 343 340 336 335 338 340 340 336 335 334 331 329 331 334 332 330 330 334 336 336 336 335 334 331 331 330
314 309 315 315 315 315 316 315 316 317 318 317 319 322 336 339 339 342 343 345 346 345 345 343 341 338 336 337 340 341 340 338 337 336 337 335 334 332 334 333 334 336 335 335 334 331 330 330 330
311 310 314 315 317 317 315 316 317 319 319 320 320 329 335 339 339 340 342 342 341 344 344 342 340 337 337 337 340 342 341 339 338 334 334 333 334 330 334 333 335 335 333 333 331 330 329 330 329
312 311 314 315 316 317 318 316 317 318 318 320 319 328 336 335 338 338 340 342 342 342 342 340 339 339 336 337 339 341 342 340 334 333 332 331 330 328 330 332 334 333 333 331 331 329 329 329 328
309 311 316 314 317 316 317 317 319 319 320 322 318 333 337 332 337 337 338 339 339 341 338 336 336 337 337 337 339 340 338 338 333 331 329 329 328 328 324 332 332 333 332 329 329 329 329 329 325
311 313 313 315 315 316 315 316 316 317 318 320 319 323 326 336 336 334 334 334 334 337 336 336 337 335 335 335 336 336 335 335 331 325 326 324 324 326 325 331 331 333 331 329 328 327 328 323 322
312 311 314 314 313 314 316 315 317 317 318 318 319 333 336 335 334 333 332 331 331 332 334 334 335 334 335 334 331 330 328 327 325 325 326 326 325 325 330 330 331 331 328 328 327 327 325 321 322
311 316 314 314 313 313 314 315 314 316 316 315 317 334 334 334 333 332 331 332 331 330 330 333 334 333 334 333 332 329 328 327 327 328 329 327 326 325 331 329 327 330 326 326 325 325 323 321 320
314 313 313 314 314 313 314 314 314 313 315 317 314 331 334 333 333 333 332 331 331 330 329 331 332 332 331 331 331 330 329 328 330 327 327 329 329 329 327 328 328 329 324 323 322 323 321 320 320
314 315 315 314 314 314 314 315 315 314 315 314 315 327 332 332 331 331 333 332 332 330 330 330 332 331 332 330 331 330 331 331 330 326 326 330 328 328 326 329 329 327 323 322 321 322 321 320 319
315 315 315 314 314 314 314 314 313 314 313 314 315 314 325 327 327 325 331 331 331 331 330 329 330 330 331 332 331 331 331 331 331 327 327 329 329 328 328 328 328 326 321 321 321 318 320 320 319
315 316 316 316 314 313 314 315 313 314 315 314 314 313 314 316 320 328 331 331 332 331 330 330 329 330 330 331 330 329 330 330 331 330 328 328 329 328 327 327 326 324 322 321 319 315 318 318 319
317 316 317 317 315 314 314 316 315 314 314 314 313 312 314 317 318 329 331 332 332 331 330 330 329 330 330 329 328 328 328 330 330 330 329 329 329 328 327 326 326 322 318 318 314 312 314 319 318
316 317 317 317 315 314 313 316 314 314 314 314 314 311 313 317 319 325 331 331 331 332 331 330 329 329 329 328 328 328 327 328 328 330 329 329 328 327 327 326 324 322 316 315 315 314 318 317 319
318 317 316 315 316 315 315 315 314 315 314 314 315 312 313 319 320 323 329 331 331 331 331 330 330 328 328 328 326 325 323 323 323 324 327 329 329 328 326 326 325 320 312 314 318 316 315 316 319
316 317 318 317 318 319 318 316 316 316 317 316 314 313 313 319 320 325 328 329 331 331 331 330 329 327 326 324 323 322 320 321 322 322 324 327 328 327 326 325 323 319 314 316 318 317 317 319 319
313 315 317 318 318 318 319 319 318 318 318 315 315 315 316 316 320 326 328 327 330 330 330 329 327 326 325 323 322 321 321 319 320 320 321 324 327 326 326 325 324 319 315 317 319 318 318 318 319
313 314 314 316 318 317 320 320 319 319 317 315 315 317 317 316 320 327 327 326 328 328 328 327 326 325 324 323 322 321 319 318 317 317 320 322 324 326 325 323 321 320 317 318 319 319 318 318 318
315 313 314 315 323 323 321 327 322 320 320 320 315 313 315 315 320 327 327 325 327 327 327 326 326 325 323 322 321 320 318 317 316 317 319 320 322 323 323 321 320 319 318 318 317 318 318 318 317
317 313 315 318 323 323 323 326 323 320 321 320 320 317 315 311 320 327 327 326 326 326 325 325 325 324 323 322 321 319 317 318 317 316 318 319 320 320 319 319 320 319 320 318 317 317 317 317 316
317 317 320 320 324 326 322 325 324 322 321 321 320 317 316 314 321 327 327 326 324 325 324 324 324 323 322 321 320 319 317 317 316 316 317 318 318 319 320 320 318 320 318 317 316 316 316 317 316
319 323 327 327 328 323 322 325 323 321 320 320 320 318 317 316 326 328 327 325 324 323 323 323 323 322 322 321 320 319 319 317 316 316 316 316 316 317 319 321 320 319 319 318 317 317 315 315 315
316 323 329 326 327 325 321 323 321 320 320 320 320 318 316 316 328 329 327 325 324 323 323 323 322 322 322 321 320 319 319 318 316 316 316 317 316 316 318 319 318 316 317 317 317 315 314 314 314
318 322 320 325 325 327 324 324 323 322 322 321 319 316 315 320 329 329 328 326 325 323 322 322 322 322 322 322 320 320 319 318 316 315 315 316 316 315 316 315 315 315 315 316 315 315 313 314 314
317 319 325 324 327 331 327 327 332 328 326 320 319 319 318 326 329 330 329 327 326 323 322 322 322 321 322 322 321 320 319 319 317 316 315 314 315 316 315 315 314 314 314 314 316 315 315 315 314
320 322 320 323 325 329 331 335 328 328 327 325 323 319 319 321 328 329 329 328 326 324 322 322 321 321 321 322 322 321 320 318 318 317 315 313 314 314 314 314 315 316 317 315 315 317 318 318 318
318 321 321 328 326 327 330 328 328 326 324 323 322 320 317 315 317 325 328 327 326 324 322 321 321 321 321 322 322 321 320 319 317 316 316 314 313 313 314 314 314 315 317 317 317 317 317 317 318

GFSSGP_925_thetae_093.txt.gz
Theta_e
319 316 312 313 313 311 314 314 312 314 317 317 318 318 320 327 322 323 339 343 344 340 339 338 337 335 334 332 331 331 331 330 331 334 339 339 337 337 337 336 337 339 340 339 338 337 338 339 337
316 315 313 307 312 314 313 314 316 314 316 317 318 327 334 339 341 340 343 343 344 341 339 339 339 337 335 334 331 330 330 331 331 332 334 335 335 335 335 336 337 338 339 339 339 339 336 337 334
315 317 312 310 309 313 314 315 316 315 315 316 317 319 333 337 341 341 341 342 341 341 339 338 339 338 336 335 334 331 330 331 331 331 334 334 334 334 334 334 336 337 337 337 339 336 336 335 333
313 313 310 314 315 314 314 316 317 316 316 314 318 328 330 336 342 341 341 344 343 342 340 338 337 338 339 339 336 334 332 332 332 330 332 332 332 331 331 333 335 336 335 336 337 334 335 334 334
312 308 313 314 314 314 315 315 316 316 316 316 318 326 335 338 341 341 341 344 344 343 341 339 337 337 338 340 340 337 336 335 332 331 335 335 335 334 333 332 334 334 334 335 335 334 334 333 332
309 308 314 315 314 315 315 314 315 317 316 317 319 334 337 338 341 343 343 344 344 344 343 340 338 338 338 340 341 341 339 338 336 336 336 336 333 331 330 330 332 334 334 334 333 333 332 331 331
310 310 314 314 313 315 316 315 316 316 317 318 319 334 335 336 340 342 343 344 344 344 343 341 340 338 338 339 340 341 341 340 337 335 334 333 328 327 327 326 332 332 333 333 332 331 330 329 329
308 310 314 313 315 315 316 315 315 316 317 318 327 335 339 334 338 341 341 341 342 342 342 340 338 337 338 337 339 340 341 339 337 335 333 332 329 328 326 322 331 332 331 331 331 330 329 329 328
307 311 312 315 314 315 314 314 313 314 316 319 317 331 329 336 337 338 339 340 341 340 339 337 336 336 336 336 337 339 337 337 336 333 332 331 329 328 328 327 325 330 330 330 329 329 329 326 325
312 310 311 313 312 314 313 313 314 314 313 316 318 333 334 335 334 333 333 332 335 337 337 336 335 335 334 334 336 337 337 336 333 332 331 329 328 328 326 325 327 324 330 329 329 329 328 322 323
311 314 312 313 313 312 312 312 313 314 312 313 316 331 333 334 333 332 331 331 332 333 334 335 335 335 334 332 333 334 333 333 331 328 325 324 324 324 326 326 327 329 330 328 328 328 323 322 324
313 311 315 314 313 313 312 312 312 311 314 314 313 327 333 333 332 331 331 330 330 330 331 333 334 335 333 331 333 331 329 327 326 325 326 327 326 325 325 327 327 330 329 328 327 324 321 322 323
314 314 313 313 312 311 311 312 312 313 313 313 312 331 333 333 333 332 330 330 331 330 329 330 332 333 332 330 331 331 329 328 328 328 328 327 328 326 329 328 328 325 327 328 326 322 321 322 322
313 314 315 314 313 313 313 313 312 313 312 312 313 328 331 332 332 330 331 330 330 331 330 329 330 332 331 330 330 329 329 329 328 329 327 329 328 326 327 327 325 327 326 327 325 321 321 320 320
314 315 314 313 313 313 313 314 312 312 313 312 312 313 327 330 330 328 330 330 331 331 330 329 330 331 330 331 330 331 331 331 331 329 326 330 328 325 324 327 326 328 324 324 323 320 319 319 320
316 315 316 315 314 314 313 317 314 313 312 312 311 311 313 321 325 328 328 330 331 331 330 329 330 330 330 330 331 330 330 330 330 330 327 328 328 327 327 327 326 327 324 322 321 321 318 319 319
314 316 316 316 314 315 311 315 314 312 312 312 311 311 310 309 314 322 326 330 331 331 330 329 329 330 329 330 329 329 328 329 330 330 328 327 328 328 327 326 325 327 324 322 320 319 318 318 319
316 316 315 315 315 316 315 315 314 313 313 313 310 310 309 309 315 319 327 329 330 331 330 329 328 329 330 329 328 328 327 327 328 328 329 328 328 328 327 326 325 325 322 320 319 317 316 318 319
315 315 316 315 315 318 318 316 316 314 315 315 315 314 312 311 312 318 328 329 330 329 329 329 328 329 328 326 325 323 325 324 323 323 324 327 328 328 327 326 325 324 319 319 317 315 315 317 319
311 312 313 315 316 316 316 317 316 316 316 316 316 314 314 313 317 321 328 327 329 329 328 328 327 326 328 325 324 322 322 321 321 322 322 322 324 327 327 326 325 324 317 315 316 314 316 317 319
307 309 312 314 315 316 317 317 316 317 316 316 316 316 315 314 318 325 327 327 329 328 328 327 326 326 326 324 323 321 320 319 320 320 320 320 324 326 326 326 324 322 315 314 317 315 316 317 318
317 312 313 314 319 316 319 319 316 317 318 318 318 316 316 313 318 325 326 326 328 328 327 327 326 324 324 324 322 321 319 316 317 318 318 319 321 324 325 325 324 321 317 315 318 316 316 318 317
317 315 315 313 320 322 321 322 317 318 320 319 318 318 316 314 317 325 326 326 328 327 326 325 324 323 324 323 322 321 319 317 318 317 317 320 322 323 324 324 323 322 316 316 317 317 317 318 317
317 317 317 319 321 322 318 322 319 318 319 319 319 319 319 313 311 323 325 326 327 326 325 324 323 322 323 322 321 321 319 318 317 317 318 320 320 321 323 323 320 318 315 317 317 317 318 318 318
318 319 317 324 323 321 319 321 320 318 317 319 320 319 318 314 311 322 325 325 325 324 324 323 323 321 322 321 320 320 320 318 317 317 318 318 320 319 319 319 319 316 313 317 319 318 317 318 317
318 319 322 323 324 324 318 320 321 320 319 319 319 318 318 316 315 324 326 324 324 324 323 323 322 321 320 320 320 320 319 319 316 317 317 318 319 320 319 319 318 317 316 317 318 317 316 316 316
317 320 320 324 324 326 322 321 321 325 325 324 322 319 315 315 314 325 326 324 324 323 323 322 322 321 320 319 320 319 319 319 317 317 318 318 318 319 320 319 318 318 317 319 317 316 316 317 315
317 318 324 324 327 330 324 323 330 329 327 325 323 317 315 318 323 326 326 324 324 323 323 322 322 321 320 319 319 319 319 319 319 318 316 317 317 317 319 319 319 318 318 320 318 318 317 316 316
318 320 319 322 324 329 328 330 329 328 325 325 324 321 318 316 327 327 326 324 323 323 322 322 321 321 321 320 319 319 319 318 319 318 317 316 317 317 317 318 319 318 317 316 316 317 318 316 315
317 318 320 323 327 324 327 323 327 326 324 321 323 322 319 319 322 327 327 325 323 322 321 321 321 321 321 321 319 319 319 319 317 317 317 317 315 316 316 316 316 315 314 314 314 315 316 316 315

GFSSGP_925_thetae_096.txt.gz
Theta_e
318 316 312 312 312 310 314 313 311 314 316 315 316 318 319 323 328 321 335 342 340 339 337 336 336 335 334 333 332 332 332 335 338 338 337 335 335 336 336 337 337 338 339 340 338 339 338 339 338
317 314 312 306 310 312 310 312 315 313 314 316 323 330 329 333 339 338 341 342 343 340 337 337 335 334 334 333 332 332 332 334 338 339 338 337 336 336 335 337 337 337 337 339 340 339 338 337 336
315 315 310 309 307 311 310 313 313 315 314 316 316 319 329 333 339 338 338 340 342 341 338 337 336 335 334 333 331 331 332 332 337 340 340 338 337 337 336 337 337 337 337 338 339 339 337 337 335
315 311 307 312 312 312 312 314 316 315 316 313 316 322 329 336 339 336 337 339 342 340 339 338 338 338 336 334 332 331 331 331 333 338 339 339 340 339 338 337 337 336 337 338 338 337 336 335 334
311 307 311 313 312 312 312 313 315 316 316 315 319 324 330 336 340 339 337 339 341 340 339 338 338 339 338 337 336 334 334 334 333 333 334 334 334 334 335 335 334 333 334 336 337 335 335 334 333
308 307 313 311 310 313 313 313 315 316 315 316 316 327 333 336 340 341 339 341 341 340 340 338 338 339 340 341 340 339 337 335 332 331 333 333 330 326 331 330 332 332 332 333 335 334 334 333 333
307 310 313 313 312 314 313 312 315 315 314 314 319 329 332 336 339 342 340 342 342 342 341 340 338 338 339 340 341 341 339 337 335 332 333 331 330 329 327 325 326 326 332 333 334 334 334 333 332
307 309 313 311 314 312 314 315 315 314 316 317 325 327 329 334 339 342 343 343 343 343 342 342 340 339 338 338 340 341 341 339 337 334 334 333 331 327 326 325 325 325 331 333 332 333 333 332 331
306 310 310 313 312 313 313 313 312 312 314 314 318 327 327 336 339 340 341 342 342 342 342 341 340 339 337 337 337 340 339 339 338 335 334 333 329 326 326 325 325 327 330 330 332 332 332 330 329
309 309 309 310 311 313 313 313 313 313 311 313 316 331 334 335 336 336 335 336 337 340 341 339 337 337 336 335 335 336 337 333 335 335 333 332 328 328 328 326 326 329 329 330 330 330 329 328 327
312 312 310 312 311 312 312 311 312 314 312 311 313 316 332 333 334 335 335 335 336 339 339 337 336 335 334 334 332 335 337 334 335 334 332 331 330 329 329 326 326 330 330 330 329 329 328 327 326
313 310 312 312 312 313 312 312 311 310 312 313 311 315 331 332 333 333 333 333 335 335 336 335 335 335 334 332 332 334 336 335 332 331 330 330 328 328 328 328 328 328 328 330 328 325 325 324 324
313 313 312 312 311 311 310 311 311 310 311 311 310 320 330 332 332 333 333 332 333 332 332 333 333 334 333 332 332 332 332 331 331 330 327 325 325 324 325 326 326 328 328 328 328 326 324 323 324
311 313 313 313 313 313 313 313 311 312 310 311 311 314 325 331 331 331 329 330 330 329 329 331 332 334 333 332 331 331 331 329 327 326 326 328 328 327 326 325 327 328 327 327 326 325 323 323 323
311 311 310 311 312 312 311 312 311 311 311 311 311 309 317 328 329 330 330 330 331 329 330 329 330 332 333 331 329 329 330 329 328 329 328 327 327 328 326 327 327 326 325 326 322 321 321 322 322
315 314 315 314 312 313 313 316 314 312 310 310 309 309 311 322 327 330 330 330 330 329 330 330 329 330 332 330 330 329 328 329 329 329 329 328 327 326 325 326 326 325 326 326 321 320 320 320 321
313 315 315 315 312 314 311 315 313 311 312 311 309 308 308 308 316 326 329 329 330 330 330 330 329 329 331 331 330 329 329 327 329 329 329 327 328 326 325 326 325 323 326 325 322 319 320 319 319
313 315 313 314 313 314 312 313 313 312 312 312 312 311 310 308 307 311 321 327 328 330 330 330 329 329 330 330 330 329 329 329 329 329 329 327 329 328 325 326 326 324 325 322 320 318 318 319 319
313 314 315 314 314 317 316 315 314 313 313 312 313 312 311 311 310 310 313 321 327 329 329 329 328 329 329 328 328 327 326 326 328 329 329 328 327 328 327 326 326 325 324 322 320 317 317 317 318
308 310 310 311 312 315 314 315 314 313 313 313 314 314 312 311 311 310 314 325 327 327 328 328 327 327 327 326 325 323 322 324 326 326 325 327 327 326 327 326 326 325 323 319 319 316 316 317 317
305 306 307 309 312 312 314 311 311 313 313 313 314 314 313 313 312 313 322 325 327 327 327 328 326 326 327 325 323 321 319 321 321 320 321 322 322 323 327 327 325 324 324 319 318 316 317 317 318
313 310 310 312 313 314 317 316 313 312 313 313 314 314 314 313 311 312 322 325 327 327 327 327 326 325 325 323 321 321 319 318 319 320 320 320 320 321 323 324 325 324 324 321 319 316 316 317 318
316 315 316 315 313 320 319 317 314 313 315 314 314 315 313 313 311 317 323 325 327 328 328 327 326 325 324 322 323 321 319 318 317 318 318 318 319 320 325 324 325 323 323 318 317 315 315 316 318
316 316 316 317 318 319 316 317 314 312 313 314 315 316 316 314 311 317 323 325 327 327 326 325 325 324 322 322 323 322 320 317 317 317 317 318 319 320 323 323 323 322 323 319 316 314 314 316 317
317 315 312 317 321 317 315 317 316 315 315 317 318 316 314 313 312 313 323 325 326 326 325 324 323 323 321 321 323 322 320 319 318 316 317 319 319 319 321 322 323 321 320 319 316 316 315 317 318
318 315 314 322 323 322 318 320 318 321 322 322 322 317 313 312 311 310 321 324 325 326 325 324 322 322 321 321 322 321 320 319 318 316 317 319 319 320 320 321 322 321 319 317 316 315 312 316 317
317 318 317 322 317 322 320 318 317 324 324 322 321 321 321 319 314 312 319 324 324 325 324 324 322 322 320 320 320 320 319 319 318 317 317 318 319 319 319 320 319 318 317 316 315 314 314 314 318
315 317 321 321 324 324 322 321 323 327 326 322 320 320 321 320 318 318 320 324 324 324 324 323 322 321 321 320 319 320 319 319 319 318 317 317 317 318 319 319 318 316 315 316 316 316 316 317 314
316 317 318 321 323 328 325 322 329 327 325 322 321 319 320 321 320 325 324 323 324 323 322 322 321 321 320 320 319 319 319 318 318 317 317 317 318 318 319 319 318 317 316 316 317 317 316 315 315
315 317 317 323 323 324 325 321 324 325 325 322 320 319 321 322 326 325 324 323 322 322 321 320 320 321 320 319 319 319 319 318 318 317 317 316 316 317 318 319 319 318 318 317 317 317 318 317 316

GFSSGP_925_thetae_099.txt.gz
Theta_e
313 316 312 313 318 318 318 318 314 316 316 316 317 321 326 327 335 329 331 341 339 339 338 336 337 336 335 335 334 334 338 340 340 339 337 337 337 336 338 336 338 339 340 340 340 340 340 339 338
317 314 312 313 316 316 316 316 317 317 317 316 323 330 330 328 334 335 341 341 339 338 337 338 336 335 335 334 333 333 334 339 340 339 338 337 337 338 338 336 337 339 339 339 340 341 339 338 338
314 313 316 317 316 315 314 315 319 317 316 316 319 322 329 331 338 335 337 340 341 338 336 337 335 334 334 333 332 332 333 334 338 339 337 338 338 338 337 335 335 337 337 338 339 340 338 338 337
315 315 313 316 316 316 314 317 317 318 317 316 317 321 330 334 339 337 334 340 342 340 337 337 336 335 335 333 333 332 332 333 336 339 338 340 341 339 336 335 334 335 336 337 338 338 337 337 336
312 313 315 316 315 315 315 315 316 318 318 318 321 321 331 337 337 336 335 339 338 340 338 337 337 336 337 335 334 333 333 335 341 343 339 338 336 336 334 333 333 333 335 336 337 338 337 336 335
313 313 316 313 312 314 315 316 316 317 318 318 318 322 330 336 340 338 336 337 338 338 338 337 337 338 339 341 339 338 335 334 335 335 336 337 335 333 327 329 331 332 332 332 333 336 336 335 334
314 316 315 314 314 314 314 315 316 317 317 317 318 322 330 336 340 339 337 336 339 339 338 338 338 338 338 339 339 339 337 336 333 333 335 335 334 329 330 328 330 331 330 328 330 335 334 333 332
311 316 315 315 314 314 315 315 316 316 317 318 325 324 325 334 339 340 340 340 340 340 339 339 338 338 339 340 340 340 339 337 335 331 332 332 330 331 325 328 331 327 325 327 329 334 331 333 332
308 313 314 313 314 314 315 315 314 314 315 315 318 325 331 335 339 341 340 341 342 341 340 340 339 338 338 339 340 341 340 339 337 334 332 332 331 327 329 330 326 326 326 327 325 333 330 332 332
313 314 313 312 313 314 314 314 314 315 315 316 316 330 334 336 339 341 340 340 339 340 342 341 340 339 338 338 338 340 339 339 338 336 334 333 331 329 328 325 325 325 325 327 329 332 329 331 330
313 314 311 312 313 313 313 314 314 315 315 316 316 316 332 336 339 340 340 339 339 338 340 341 340 339 337 336 336 339 338 337 335 335 335 334 332 329 326 325 326 326 326 329 331 328 330 330 329
314 313 313 313 313 314 314 314 314 315 316 316 316 314 322 333 338 339 339 338 337 336 339 339 338 337 335 334 335 333 335 336 334 334 334 333 331 329 327 328 328 326 329 329 328 329 329 328 327
314 314 313 313 314 313 313 314 314 315 314 315 313 313 317 323 331 336 337 337 336 335 336 336 336 335 334 333 332 332 333 334 334 333 333 332 331 329 329 329 329 326 329 329 329 328 328 327 326
311 313 313 313 314 314 314 315 313 314 314 314 314 315 316 321 327 331 335 335 334 334 334 335 334 334 334 333 332 331 331 331 333 332 332 331 331 330 327 327 328 327 327 329 328 328 327 326 325
310 311 311 310 312 313 313 315 315 315 315 315 315 315 315 316 323 329 331 333 334 333 332 332 332 333 333 332 332 331 331 330 331 331 331 328 325 326 327 326 325 327 328 327 327 327 325 323 323
315 315 317 315 313 313 313 315 316 315 314 315 315 313 313 314 320 325 329 331 332 332 330 329 330 332 333 332 331 330 330 330 329 328 326 326 327 327 327 326 327 327 327 326 325 325 323 321 322
313 316 316 316 314 315 314 315 315 313 314 315 315 315 314 314 314 315 325 329 331 330 330 328 329 330 332 332 331 329 329 329 328 328 327 328 327 327 326 326 326 326 325 324 323 321 322 320 321
311 315 316 316 315 315 316 316 315 315 316 317 317 318 317 317 317 316 314 321 328 330 330 329 329 329 330 331 330 329 329 329 331 328 328 328 328 327 325 326 325 325 324 324 322 320 320 320 321
312 314 316 315 315 316 317 317 317 316 317 317 316 317 317 318 318 316 315 314 322 328 329 329 329 328 329 329 330 329 328 328 329 328 329 328 328 327 324 326 324 324 325 323 321 320 320 320 319
310 311 311 311 312 313 314 315 315 314 315 316 316 316 316 317 317 317 315 314 320 326 329 329 329 328 328 328 327 326 326 327 327 326 328 327 327 327 326 325 325 324 323 322 320 319 318 319 318
308 309 309 309 309 312 313 314 313 312 312 313 314 315 316 317 317 318 317 317 321 325 328 328 329 327 327 327 326 325 324 323 324 324 325 327 327 327 327 326 325 325 323 321 319 317 318 318 318
309 307 307 310 313 315 316 318 314 314 313 313 314 315 316 316 316 317 318 320 323 325 327 328 329 327 327 326 324 323 323 321 322 321 322 322 323 324 327 325 325 324 324 322 319 317 318 318 319
312 314 313 314 316 318 317 317 313 313 314 316 316 318 318 316 316 317 318 318 323 326 327 328 328 327 325 324 324 322 321 321 320 320 320 321 320 320 323 324 325 324 323 323 322 317 318 318 319
316 316 316 318 318 319 317 315 315 316 316 319 321 323 320 317 317 317 318 319 325 327 327 328 327 326 324 323 323 322 320 321 320 318 320 320 319 319 321 322 324 322 323 321 321 318 317 317 318
316 315 317 318 320 316 315 317 317 316 320 324 323 322 322 322 321 318 317 324 327 327 328 328 327 325 323 322 321 321 322 320 318 318 319 319 318 319 321 323 323 323 322 322 321 319 317 316 318
316 315 316 316 321 321 319 321 319 325 323 322 321 320 321 323 323 322 317 325 327 328 328 327 326 325 323 321 320 321 321 320 319 319 318 319 318 319 320 322 323 322 322 322 319 319 318 316 317
317 317 317 318 318 320 317 319 317 325 325 324 322 321 323 324 325 325 322 320 327 328 327 326 326 325 322 321 319 320 320 320 319 318 317 318 319 319 320 321 321 321 321 321 320 317 316 315 316
316 316 320 318 322 323 322 322 322 326 327 325 322 321 322 324 327 325 324 319 325 327 327 326 324 323 321 320 320 321 320 319 319 318 318 317 318 319 319 319 320 319 319 318 317 316 315 315 315
318 318 316 317 319 323 324 324 326 326 326 325 322 321 322 320 326 326 326 325 325 326 326 324 323 322 321 320 319 320 319 318 319 318 318 318 317 317 319 319 318 317 317 317 317 316 315 314 313
315 316 316 318 322 319 322 318 324 324 324 324 323 322 320 318 320 325 325 324 324 324 323 322 322 321 320 320 319 320 319 318 318 317 317 317 317 317 317 319 318 317 316 316 316 316 315 315 314

GFSSGP_925_thetae_102.txt.gz
Theta_e
317 318 314 317 319 318 320 319 321 322 321 322 322 326 327 328 330 327 335 344 347 345 344 339 335 337 336 335 335 337 340 342 342 340 337 338 339 340 341 341 341 342 341 341 341 340 341 340 338
318 315 315 319 317 319 319 320 322 322 322 321 322 324 326 326 330 332 340 343 345 343 344 344 336 337 336 335 334 336 339 342 342 340 339 339 339 340 340 339 339 340 340 340 340 340 341 339 337
317 314 318 317 318 318 319 319 321 322 321 321 324 327 326 327 332 332 337 341 342 342 343 345 336 336 335 334 334 334 337 340 341 341 339 339 340 338 338 336 339 339 339 337 337 341 340 338 338
316 315 316 317 317 318 318 319 322 322 321 321 322 324 328 332 332 333 338 341 341 342 343 344 335 335 335 334 333 333 334 337 340 341 340 339 338 336 336 334 334 335 336 335 337 339 339 338 337
316 317 317 317 316 317 319 319 322 322 321 321 321 323 327 334 337 336 339 341 342 343 343 342 336 336 335 334 333 332 333 335 338 343 342 341 338 335 333 333 331 331 333 334 335 335 336 338 337
317 318 316 316 317 317 317 318 320 321 320 320 321 322 324 334 338 338 339 342 344 345 345 345 338 337 335 334 333 333 333 334 333 342 339 337 336 334 327 332 332 330 329 331 331 331 333 336 336
317 317 316 316 316 316 316 317 318 318 318 320 321 322 325 333 338 341 341 342 345 346 346 345 343 341 340 338 336 334 334 334 334 336 335 335 336 334 334 332 331 325 327 330 331 332 331 333 332
316 316 316 316 316 316 317 317 317 318 319 320 321 323 325 333 341 343 342 343 344 346 345 345 344 344 344 343 340 338 337 335 333 335 337 336 336 335 333 329 328 328 329 329 326 329 331 330 330
316 316 317 316 316 315 317 317 318 319 319 319 320 322 329 332 340 343 342 341 343 344 344 344 344 344 344 344 343 340 339 338 336 334 333 332 336 335 333 331 330 331 331 327 325 326 327 326 328
317 319 318 318 316 315 316 316 318 318 318 319 319 326 328 331 338 342 342 340 341 343 343 343 343 343 344 344 344 342 343 340 339 338 336 334 335 335 333 332 329 331 329 326 326 327 325 325 329
316 318 319 317 316 315 315 316 316 316 316 318 319 319 319 324 329 336 340 337 338 341 342 342 343 343 342 340 342 341 340 339 339 338 338 337 336 335 333 334 331 332 327 328 327 327 325 324 330
317 317 317 317 315 315 315 316 316 316 317 317 317 318 318 318 323 329 333 338 339 339 341 342 342 342 341 339 339 339 338 338 338 337 335 335 335 334 332 332 330 329 330 329 329 328 326 329 331
318 318 317 316 315 315 315 315 315 316 316 317 316 317 318 318 320 323 327 332 336 339 340 340 340 340 339 338 336 336 335 335 337 335 333 335 334 333 330 329 327 331 331 329 329 329 327 331 330
317 317 317 316 316 316 315 316 317 317 317 318 318 318 318 318 319 321 324 329 334 337 339 340 339 339 338 337 337 335 335 336 336 334 333 334 333 331 329 328 330 330 331 328 329 328 329 330 330
314 314 314 315 315 316 316 317 318 319 318 318 318 318 318 318 318 321 323 327 331 334 337 339 339 337 337 337 337 334 333 335 332 333 332 333 332 331 331 330 329 330 329 328 328 328 328 328 328
314 316 318 318 317 315 315 319 319 318 318 319 319 319 319 319 318 319 322 325 328 331 335 337 338 336 335 336 336 334 332 334 333 331 331 331 331 331 330 329 327 327 327 327 326 326 326 327 327
317 320 320 320 318 318 317 319 319 318 318 318 319 319 319 319 319 319 320 324 327 329 333 336 337 335 334 335 334 333 333 333 333 332 331 331 331 331 330 329 327 327 326 325 326 324 326 326 326
317 317 318 319 319 318 319 319 319 319 318 319 320 320 321 321 321 320 320 320 323 328 332 334 335 335 333 332 334 333 331 333 332 331 332 330 330 331 330 329 326 326 323 323 323 323 323 325 326
313 314 316 317 317 318 318 319 319 319 319 320 320 320 320 321 321 320 320 321 321 324 330 333 334 335 332 332 334 332 329 330 330 329 330 331 330 329 328 326 325 324 322 321 321 321 322 323 323
311 313 314 314 314 314 315 316 316 317 318 318 319 320 321 321 321 321 320 320 321 322 328 331 333 335 333 333 332 331 331 329 330 327 330 330 329 328 327 326 325 323 321 321 321 320 320 321 322
311 312 313 314 313 313 314 316 316 316 316 316 317 317 317 318 319 320 321 320 321 322 326 330 332 334 333 333 332 330 330 328 329 328 327 328 329 328 327 325 324 324 323 322 321 322 323 321 321
311 312 312 312 312 315 317 315 316 316 316 316 317 318 318 318 318 318 319 321 320 322 325 328 330 333 332 333 331 329 328 328 327 327 326 326 326 327 327 326 325 324 323 322 321 321 322 321 320
312 311 311 312 314 317 317 319 317 315 316 319 323 324 324 324 323 322 321 319 319 320 325 328 329 331 332 332 331 329 329 329 328 326 326 326 326 327 326 326 325 324 323 322 321 321 322 321 321
315 316 317 318 318 321 318 318 317 318 319 322 325 324 324 325 325 324 322 320 320 319 324 329 330 331 332 332 330 330 330 328 326 325 326 325 324 324 325 326 325 324 324 323 321 320 320 320 322
317 318 322 323 323 320 316 318 317 320 325 325 325 324 325 326 327 327 325 323 321 321 328 330 330 331 331 329 329 329 328 328 327 325 325 324 323 323 323 324 324 323 323 323 322 320 320 319 320
317 316 319 317 319 319 320 321 322 325 325 324 324 324 325 326 328 329 328 326 322 326 330 330 330 330 328 327 329 328 326 328 326 324 324 324 323 322 322 322 324 323 323 323 321 319 318 319 319
317 320 317 321 320 322 318 319 320 323 324 325 324 325 326 325 325 328 330 328 323 328 330 330 329 329 327 325 325 325 328 327 325 324 324 323 322 321 320 322 322 323 322 321 320 320 319 318 318
316 317 320 320 324 323 319 321 323 326 325 325 325 325 325 323 321 321 331 328 323 328 330 330 329 328 325 325 324 326 327 326 325 323 322 322 322 321 320 321 322 322 322 322 320 320 319 318 317
319 319 319 319 322 324 322 326 325 322 321 323 323 323 323 321 316 316 322 328 326 328 330 328 327 326 324 323 324 327 327 326 324 323 322 322 321 320 320 320 321 320 320 320 319 318 317 317 316
316 316 317 321 321 320 321 320 323 318 318 321 322 323 320 317 311 310 314 322 326 328 328 326 325 324 323 322 323 326 326 325 323 323 323 322 320 320 320 319 321 319 318 317 317 317 316 316 315

GFSSGP_925_thetae_105.txt.gz
Theta_e
316 319 318 318 320 321 320 322 323 324 324 324 325 327 328 329 331 334 335 344 345 344 345 337 336 338 338 336 336 336 338 341 342 340 337 338 339 341 341 341 340 342 343 342 340 340 341 341 338
319 321 317 319 320 319 322 323 322 323 325 324 324 326 326 328 329 334 338 342 339 339 345 344 335 337 336 335 335 336 339 343 343 340 339 338 339 341 342 341 342 342 341 340 340 339 341 340 338
319 318 319 319 320 319 321 323 322 323 324 324 325 325 326 327 329 331 336 337 337 338 342 346 335 336 335 334 334 336 339 342 343 341 340 338 340 341 339 341 341 340 339 337 337 337 340 338 338
320 319 319 320 320 320 321 322 321 323 324 324 324 326 327 330 330 331 334 336 337 337 340 345 335 336 335 334 334 336 339 342 342 342 344 339 339 338 337 336 338 338 336 335 335 335 337 337 337
319 319 318 318 318 319 321 321 323 323 323 323 323 325 326 331 331 333 335 336 337 339 341 344 336 335 335 334 334 334 336 340 343 345 344 343 339 338 336 334 335 336 335 334 333 334 336 337 337
320 319 319 319 318 320 320 321 321 323 323 323 323 323 325 329 334 334 337 338 339 342 343 347 338 335 335 335 334 334 335 337 344 345 343 340 338 336 335 334 332 334 332 332 331 332 335 335 335
319 319 317 318 319 319 320 320 319 321 322 322 323 323 325 330 332 335 337 339 343 345 347 348 344 340 336 335 334 333 333 334 335 340 339 339 338 335 334 333 331 331 331 331 330 328 331 333 333
319 319 319 319 318 318 320 319 319 319 320 322 322 323 325 335 336 340 338 341 344 347 347 347 346 344 343 341 336 334 334 333 334 335 338 339 337 336 333 331 332 331 326 330 328 331 331 331 332
320 320 319 319 319 319 319 318 319 319 319 321 323 324 330 329 333 341 339 341 343 346 346 346 346 345 345 344 342 338 336 335 334 336 338 337 338 337 336 334 333 330 327 330 329 331 330 328 328
321 322 321 320 320 320 318 318 320 319 319 320 321 323 325 328 332 339 340 341 340 343 344 344 344 344 344 343 344 342 342 341 340 339 339 339 337 338 337 336 332 330 328 330 329 327 328 326 324
320 323 322 322 321 320 319 318 319 318 319 320 320 321 325 324 327 334 337 338 338 339 341 342 344 344 344 343 343 343 342 342 342 341 338 337 336 336 336 335 334 332 330 332 328 328 327 326 325
320 321 321 321 322 319 319 319 318 319 319 319 319 321 320 321 322 326 331 336 336 337 340 341 342 344 344 341 343 341 342 343 341 341 340 338 337 336 336 334 335 333 332 332 331 329 327 326 325
320 320 321 321 320 320 319 319 319 319 319 319 319 318 319 320 321 321 325 329 333 335 338 341 342 344 343 342 341 339 339 340 340 340 339 339 338 338 336 335 334 333 333 332 331 329 327 326 325
321 320 321 321 321 319 319 319 319 319 319 319 318 319 318 319 320 320 322 325 328 333 337 341 342 343 342 341 340 339 338 337 338 338 338 338 337 336 336 335 334 332 330 330 331 330 328 327 325
319 320 320 320 321 320 319 320 320 320 320 320 320 320 320 319 319 321 321 323 326 328 333 341 343 342 342 341 340 339 337 336 335 335 337 338 337 336 335 333 330 331 332 331 330 329 329 327 330
317 319 320 320 318 319 318 320 320 321 321 321 321 321 321 321 320 319 320 321 323 326 330 337 342 342 341 340 339 338 336 335 336 334 337 335 335 335 334 333 332 332 331 331 330 329 328 327 329
318 319 319 319 319 320 319 320 319 319 321 320 321 322 322 321 321 319 319 320 322 324 328 334 341 342 341 340 339 339 336 335 333 333 334 335 334 334 333 332 332 331 331 329 328 328 328 328 328
320 319 320 321 322 321 322 322 320 320 320 320 320 321 321 321 321 320 319 319 322 324 327 332 339 342 340 339 339 338 336 335 333 333 333 333 334 333 332 331 332 331 329 327 327 326 327 326 327
319 320 321 320 320 321 322 322 321 321 321 321 321 321 321 322 322 322 321 320 321 322 327 332 336 340 340 336 337 337 337 332 332 332 333 333 333 332 331 331 329 326 327 326 325 325 326 326 327
316 318 318 316 317 319 320 320 318 318 319 320 321 321 322 322 322 322 322 322 321 322 324 331 334 337 339 336 335 336 336 331 332 332 332 332 330 331 331 330 326 325 324 322 323 323 324 325 325
315 315 315 314 315 316 316 317 316 316 317 317 318 319 320 320 321 322 323 322 322 322 323 327 332 334 338 335 335 336 335 332 331 331 331 331 331 331 331 330 326 324 323 321 322 323 323 324 323
314 314 312 312 315 316 315 316 318 318 318 317 317 318 319 320 319 320 320 321 321 323 323 324 329 332 336 336 336 336 334 333 331 332 330 331 329 330 330 328 325 324 323 321 321 322 322 323 322
312 311 311 313 314 314 314 316 317 317 317 319 322 325 325 325 325 325 325 323 320 321 323 324 326 330 334 337 336 336 334 333 332 331 330 329 329 329 329 328 327 324 323 322 322 322 323 322 322
310 312 313 313 314 317 317 317 318 318 320 321 325 325 325 326 327 327 326 325 322 321 321 324 327 329 332 336 335 336 334 333 332 331 329 328 328 328 329 327 326 325 324 323 323 323 323 323 322
312 315 320 321 321 319 317 317 317 322 325 325 325 325 326 326 327 328 329 330 326 323 322 324 328 329 331 335 335 335 334 333 332 330 328 328 327 327 328 328 327 325 324 323 323 323 323 322 322
315 316 317 318 319 318 318 318 319 323 325 324 324 324 324 325 325 326 329 332 330 326 322 323 326 330 330 334 335 334 334 334 332 330 328 327 327 325 325 325 326 325 324 324 323 322 322 323 323
318 317 315 321 322 324 322 320 325 324 324 325 324 324 325 324 323 323 324 325 331 328 323 325 329 330 331 334 334 334 334 332 331 330 327 327 327 325 323 325 325 325 324 323 322 321 320 321 321
317 316 319 320 321 319 315 318 330 326 322 322 322 324 325 323 321 318 317 318 322 327 326 330 332 331 333 330 330 333 332 333 331 329 327 327 325 323 324 323 324 325 324 323 322 321 319 319 320
318 319 320 320 323 326 320 328 324 321 319 320 321 325 323 321 318 313 310 309 315 322 330 332 332 332 329 327 328 330 331 331 330 327 326 325 323 323 323 323 323 322 322 323 323 321 321 320 319
315 316 318 320 322 320 324 325 320 318 317 319 324 322 320 317 314 310 306 304 308 311 331 329 329 328 327 325 325 328 331 330 329 326 325 325 322 323 323 323 322 322 320 321 322 321 320 319 318

GFSSGP_925_thetae_108.txt.gz
Theta_e
315 317 320 320 318 320 320 320 322 323 324 325 325 325 327 329 334 338 342 343 348 344 332 332 333 335 338 339 338 337 338 340 340 339 336 335 336 337 338 340 341 341 341 341 341 341 341 339 336
317 320 321 319 318 319 320 321 321 323 325 325 325 326 327 328 333 336 341 343 345 345 335 334 334 336 337 337 336 336 338 340 341 340 337 336 337 338 338 340 340 341 340 339 339 340 340 339 336
313 320 321 318 318 320 321 321 324 324 325 325 325 325 325 326 330 334 340 338 340 344 344 335 334 335 336 335 335 336 339 341 342 341 339 337 338 337 339 340 341 341 339 338 336 336 339 338 337
317 322 320 318 318 319 319 321 322 323 324 324 324 325 326 331 330 335 335 335 337 341 345 336 334 335 335 335 335 336 339 341 343 341 340 338 338 337 338 339 341 339 338 335 335 336 336 337 337
319 321 319 318 317 318 321 322 322 322 323 324 323 324 327 331 329 334 334 335 337 341 343 340 334 335 335 334 334 336 338 341 342 342 341 340 338 338 337 338 339 338 337 335 334 335 336 336 336
319 320 320 319 318 318 319 320 321 323 323 323 323 323 327 330 331 334 335 337 337 342 345 341 335 335 334 334 334 335 336 340 343 345 343 343 339 338 336 336 336 338 336 334 333 333 334 336 336
322 321 319 318 318 319 320 321 321 321 322 322 323 322 325 332 333 335 337 338 341 343 348 342 336 335 335 334 333 333 334 336 339 344 343 342 339 338 337 335 336 337 336 333 333 334 335 332 333
321 320 319 319 319 318 320 321 321 320 320 323 323 322 326 332 333 335 339 341 344 346 348 347 342 337 336 335 334 333 333 333 335 338 341 341 340 338 337 334 333 333 333 333 332 332 329 331 329
321 322 321 320 319 320 320 320 320 320 320 320 322 322 330 331 338 338 338 343 347 348 348 349 346 344 342 340 336 335 334 333 334 336 338 340 339 338 336 334 333 332 332 331 333 331 331 329 327
322 324 322 321 321 320 320 321 319 319 319 319 321 323 327 329 332 340 340 341 346 348 348 348 347 346 345 343 342 337 336 335 334 335 336 339 338 338 337 334 332 332 330 327 331 330 332 328 327
320 324 323 322 322 322 322 321 320 318 319 320 321 321 322 325 328 334 338 340 344 345 346 346 346 346 346 342 343 342 340 340 340 339 338 336 337 337 338 337 335 333 330 330 331 331 330 328 327
321 321 322 322 322 322 323 322 319 319 320 320 321 321 321 325 324 328 333 337 339 341 343 344 345 346 344 342 345 344 343 342 341 340 340 338 337 336 337 336 336 334 333 331 331 330 328 327 326
319 321 321 321 321 322 322 322 320 320 321 320 320 320 319 320 322 321 325 330 336 339 341 342 344 344 346 344 343 342 342 343 342 340 340 338 337 336 336 336 335 335 334 332 331 330 328 327 326
318 319 321 321 321 322 321 321 321 320 320 320 320 319 319 319 319 320 321 322 329 334 339 341 342 344 345 342 344 341 340 341 338 339 338 339 338 337 336 335 334 334 333 331 331 330 329 326 326
316 317 320 321 321 321 321 321 321 321 321 320 320 320 320 319 319 318 319 321 324 328 335 342 342 344 344 344 343 340 340 338 337 337 337 337 337 337 335 335 334 334 333 332 331 329 329 327 327
317 318 320 320 321 322 321 323 322 320 320 321 321 321 321 321 321 320 319 320 322 325 327 343 343 343 344 343 343 341 340 338 336 335 336 336 336 336 335 334 333 333 331 331 330 329 330 329 328
317 320 320 320 321 321 320 322 321 321 320 321 322 322 321 321 321 321 320 319 321 322 326 344 344 344 343 343 342 341 340 338 338 334 332 334 335 334 335 334 333 332 332 331 331 330 329 328 328
317 319 319 320 320 320 320 321 320 320 320 321 320 322 322 322 322 322 322 320 319 321 323 342 344 344 343 343 342 341 339 336 336 335 334 334 334 335 335 334 333 331 331 330 330 329 328 328 327
315 317 318 319 319 320 321 320 321 322 321 321 322 322 321 322 322 321 321 321 320 320 321 336 345 345 343 342 342 341 340 338 335 335 333 332 332 333 334 332 331 331 330 329 328 327 327 328 327
311 316 319 320 322 321 322 323 322 322 322 322 322 322 321 322 322 322 323 323 320 320 322 329 343 345 343 342 341 340 340 337 335 333 333 333 332 334 333 332 331 329 328 326 325 325 326 326 327
311 314 319 320 320 318 318 320 320 320 319 319 320 320 321 322 322 322 323 323 325 323 324 325 332 344 342 341 339 338 339 334 332 333 331 332 333 332 331 331 330 328 325 324 324 325 325 325 326
310 313 317 318 318 315 316 317 317 318 318 318 318 319 319 320 322 322 322 322 323 325 325 325 327 335 341 340 337 337 336 334 333 333 331 332 330 331 331 330 329 325 324 322 323 323 325 325 324
310 314 316 315 315 314 315 316 317 318 318 318 320 325 325 326 326 326 326 325 324 323 323 326 325 331 338 340 336 336 338 335 332 333 331 331 331 329 330 329 328 325 323 322 322 323 324 324 323
311 313 313 312 313 316 315 316 315 316 318 320 325 325 325 326 327 327 327 328 328 325 324 323 327 329 333 340 337 337 338 336 334 333 331 330 330 329 329 329 327 325 324 322 322 322 323 323 323
311 312 318 320 321 319 314 314 315 322 323 324 324 326 326 326 326 325 325 326 328 330 330 323 324 327 330 339 338 337 338 336 334 333 332 329 329 329 329 328 328 326 324 322 322 322 323 323 323
310 312 321 318 319 318 315 319 317 321 324 324 325 325 325 324 323 321 321 321 322 324 326 324 324 325 329 335 339 337 339 336 335 333 331 328 328 328 328 329 327 325 325 324 323 323 323 323 323
312 314 315 320 321 325 319 324 324 323 324 325 324 325 324 322 320 317 315 315 313 317 319 322 324 325 328 332 338 336 338 335 336 333 330 330 328 327 326 327 329 326 325 324 323 322 322 323 323
316 315 320 321 330 332 324 327 331 326 324 323 326 324 322 319 316 314 311 308 307 312 314 317 327 324 329 333 336 337 336 335 335 332 331 329 328 326 325 324 325 327 325 324 324 323 322 323 323
320 320 320 320 320 328 325 333 324 322 321 325 323 321 318 316 314 311 307 304 303 306 308 312 332 331 333 336 336 336 335 335 333 331 329 329 326 325 324 324 325 326 325 324 323 323 322 321 322
318 320 320 323 319 322 326 327 320 324 323 322 319 316 313 311 311 308 304 301 300 303 304 307 321 330 331 331 331 332 333 332 332 330 328 326 324 323 323 323 323 324 324 324 323 322 321 321 320

GFSSGP_925_thetae_111.txt.gz
Theta_e
310 315 317 319 315 311 313 314 316 317 317 321 322 325 324 329 336 346 345 342 336 332 336 339 336 338 339 338 337 338 339 339 339 338 334 334 334 335 335 337 339 339 340 340 340 340 340 338 337
308 317 319 316 312 311 311 316 316 317 321 323 322 324 325 333 337 343 346 343 337 331 332 332 332 335 338 338 337 337 337 339 339 338 335 335 335 335 336 339 339 340 340 340 340 339 339 336 335
311 317 317 314 312 314 312 315 316 319 323 323 323 321 324 331 338 339 347 344 332 332 332 332 332 334 336 337 336 336 337 338 340 339 336 336 336 336 336 338 339 340 339 339 338 337 338 336 335
311 317 318 314 313 312 314 316 316 317 321 322 322 322 327 331 337 341 343 340 334 336 332 332 333 334 335 335 335 336 337 339 341 340 338 337 336 336 338 338 340 340 338 337 336 335 337 336 336
316 315 316 313 312 313 314 316 316 317 320 321 322 322 329 330 338 338 341 341 342 343 333 332 332 333 334 333 334 336 337 339 342 341 339 337 337 337 337 338 340 339 337 336 336 336 336 337 336
314 314 315 317 316 315 315 316 317 317 320 321 321 321 327 333 334 335 338 341 341 343 336 332 332 333 333 333 333 335 337 339 341 341 340 339 338 337 337 338 340 339 336 335 335 335 336 336 336
316 314 316 315 316 316 316 316 316 317 320 321 320 321 325 330 333 335 338 338 341 341 339 332 333 334 333 333 333 333 335 337 339 343 343 342 339 338 337 337 339 338 336 334 334 334 335 335 334
317 318 320 318 317 316 316 317 317 316 319 321 320 318 327 328 334 338 340 340 341 343 341 334 333 334 333 333 333 332 333 334 334 338 343 342 340 338 337 336 337 338 336 334 333 332 332 331 331
316 318 321 320 317 317 316 317 317 317 318 318 321 321 329 334 336 341 344 346 346 347 346 337 334 335 334 333 333 333 333 333 335 336 340 341 340 339 337 335 335 335 336 334 333 330 330 329 328
314 317 320 318 317 317 318 318 318 317 317 318 318 327 329 333 337 338 343 346 347 349 348 345 337 335 334 334 334 333 333 333 334 335 337 339 340 339 338 336 334 333 334 333 332 331 329 329 328
316 318 318 319 319 319 319 318 319 316 315 315 316 323 324 326 328 336 340 345 347 347 349 348 345 340 339 340 338 335 334 334 333 333 334 336 339 339 338 336 334 333 332 330 330 331 330 331 327
312 316 317 318 319 320 319 317 318 315 315 318 316 317 316 321 323 327 335 340 346 348 347 348 346 345 344 342 340 340 337 336 335 334 334 336 337 338 337 337 335 333 332 330 330 331 331 330 328
308 312 316 318 318 319 319 319 319 318 317 318 317 317 316 317 319 324 330 336 344 346 347 347 346 346 345 344 341 341 340 339 339 339 339 338 337 338 337 337 336 334 333 331 330 331 330 329 327
311 311 312 316 318 318 319 319 317 319 317 318 318 316 315 314 315 316 319 327 337 344 345 345 345 345 344 343 342 343 343 343 341 340 341 340 338 337 335 336 336 335 334 332 331 331 329 327 326
314 314 314 313 314 317 318 318 319 318 318 317 317 317 316 315 315 314 316 317 320 335 342 343 344 344 345 343 344 343 341 342 343 341 339 337 337 337 336 336 335 334 334 333 332 331 330 328 327
310 312 315 315 314 315 317 319 319 317 316 317 316 316 316 315 315 317 318 318 317 318 338 342 343 344 345 343 343 343 341 338 339 338 338 335 335 337 336 335 335 334 333 333 332 331 330 329 327
311 314 315 315 315 315 318 319 318 317 317 318 317 317 317 316 315 318 319 319 319 318 323 341 343 344 344 344 342 341 341 339 338 335 335 335 335 336 336 334 334 333 333 332 332 331 329 329 328
311 315 314 315 315 317 317 318 317 317 319 319 315 314 315 317 316 317 319 320 320 319 319 339 342 344 344 344 342 341 340 340 338 335 334 334 333 335 335 334 334 333 332 331 331 330 330 329 328
308 313 315 315 315 317 317 318 318 316 317 316 316 314 316 315 315 318 319 320 320 320 318 340 342 344 343 343 342 341 340 339 337 336 333 331 333 334 334 334 333 332 332 332 329 330 330 329 327
305 306 308 310 313 317 319 322 320 318 317 317 316 315 315 317 319 319 320 320 320 320 320 338 342 343 343 342 341 340 340 338 337 336 334 332 332 332 334 334 333 332 331 330 328 328 327 327 326
304 305 307 309 311 317 320 323 321 321 318 317 316 315 316 315 316 317 317 318 320 321 319 335 343 343 342 341 341 340 340 339 335 334 334 333 332 332 332 333 332 330 329 329 328 326 325 325 326
303 305 307 309 311 323 320 319 314 318 319 316 316 314 315 319 320 320 321 321 322 322 323 333 343 343 342 341 341 340 338 336 335 334 333 333 333 332 334 333 332 330 329 327 324 324 323 325 326
304 305 307 313 319 319 320 315 312 313 315 316 316 321 320 322 323 323 322 323 323 324 325 327 328 342 341 341 340 339 337 336 334 334 333 331 331 332 332 331 331 329 328 325 323 322 323 325 325
306 308 316 316 317 318 315 312 313 312 315 325 325 325 325 322 320 319 317 317 317 316 317 320 324 327 340 340 339 337 336 335 333 332 332 331 331 330 332 331 330 328 326 324 322 321 323 324 325
308 314 316 317 316 316 314 314 313 318 325 326 326 324 321 319 316 314 313 312 311 310 313 315 318 321 325 339 337 336 335 336 333 332 331 330 331 330 331 330 328 327 325 324 322 322 323 323 324
310 312 315 319 321 317 314 316 313 316 325 325 322 320 317 315 313 311 310 307 306 306 308 310 311 315 322 336 337 336 334 335 334 332 331 330 329 330 329 329 328 327 326 323 321 321 323 323 323
310 312 314 320 321 323 315 324 323 324 326 325 321 317 314 313 311 308 306 304 303 303 305 306 309 313 324 327 337 335 335 336 334 333 332 331 330 329 328 329 329 327 325 324 322 321 322 323 323
310 311 316 321 324 327 322 327 329 321 326 321 316 313 312 310 308 305 303 302 301 302 303 304 308 313 330 327 337 336 336 337 335 334 332 331 330 328 328 328 328 327 326 324 322 323 322 323 323
318 318 319 321 323 326 329 329 320 316 319 316 313 309 306 305 304 303 302 300 299 300 301 302 304 309 326 331 336 336 336 336 334 334 332 330 329 327 326 327 328 328 325 325 323 323 322 322 322
317 319 318 323 324 322 325 320 316 312 311 310 309 306 304 302 301 300 300 299 299 299 299 299 301 304 311 328 332 335 335 334 333 333 331 330 328 327 326 325 325 326 326 325 324 323 322 322 322

GFSSGP_925_thetae_114.txt.gz
Theta_e
310 313 317 317 312 307 310 313 312 313 315 316 319 324 325 330 334 337 343 342 338 338 339 340 340 340 339 339 339 339 339 339 337 334 333 333 334 334 336 338 339 339 339 339 338 339 339 339 338
309 317 318 312 312 310 308 311 313 313 316 317 320 323 327 339 342 345 342 342 336 335 339 339 338 338 338 338 338 338 338 339 338 335 334 334 334 334 335 337 338 338 339 339 339 339 338 337 335
312 317 314 315 310 309 309 311 312 313 314 316 321 320 327 336 346 344 341 337 334 334 337 338 338 338 337 337 337 337 338 338 338 336 335 335 335 335 336 337 339 339 339 340 340 338 336 335 335
310 316 314 318 314 310 311 312 313 313 315 315 320 322 328 337 343 344 338 334 331 333 333 334 336 336 336 336 336 336 336 338 338 338 335 335 336 335 337 337 339 339 338 338 338 337 337 335 336
314 312 317 315 315 311 313 313 314 314 314 315 318 321 329 334 343 343 338 331 328 331 331 333 334 334 335 334 333 333 334 338 339 338 336 336 336 336 337 338 339 339 338 337 336 336 337 335 336
313 311 315 317 314 313 312 312 314 315 315 315 319 325 328 336 344 342 331 327 326 329 332 334 335 333 333 332 332 333 334 336 340 339 338 337 337 336 338 338 340 339 337 336 335 335 336 335 336
313 311 314 314 314 314 314 314 315 316 315 314 318 320 326 335 341 341 340 336 333 329 332 334 334 333 332 331 332 333 334 336 339 340 339 337 337 337 337 338 340 339 336 335 334 334 335 335 335
313 314 318 314 315 315 314 316 316 315 315 318 316 318 332 328 335 342 342 342 341 332 331 332 333 333 333 332 332 333 333 333 334 338 340 339 337 337 337 337 339 338 336 335 334 333 334 333 334
313 315 318 317 318 318 316 315 314 315 314 314 319 321 329 332 342 345 345 343 341 337 332 332 333 333 333 333 333 333 333 332 333 336 338 341 339 338 337 336 338 338 336 334 333 332 331 330 332
312 315 319 317 318 319 317 317 317 316 314 314 327 328 332 339 343 344 345 346 344 341 338 333 333 333 333 334 334 333 333 333 333 334 337 340 340 338 338 336 336 336 336 335 333 331 330 330 331
312 317 318 318 317 316 317 316 317 316 317 313 322 328 331 337 340 342 344 346 345 344 342 336 333 334 334 334 334 333 333 333 333 333 336 338 339 339 338 337 336 335 334 335 333 332 330 329 329
304 309 315 316 316 316 317 316 317 313 316 315 312 324 327 332 337 340 343 344 345 346 344 343 336 333 334 334 334 333 333 332 332 332 334 337 339 339 338 337 335 334 333 333 332 331 330 329 329
306 306 307 309 312 316 316 317 317 318 317 316 314 316 317 321 329 337 341 343 344 346 346 345 341 336 334 335 335 334 333 333 332 332 332 333 336 338 338 337 336 334 332 331 330 328 330 329 330
312 311 309 308 308 309 315 317 317 318 316 316 316 313 312 313 316 319 331 340 344 345 346 345 345 342 339 338 337 336 335 334 333 333 333 333 334 336 337 336 336 335 333 332 331 330 329 330 330
307 311 313 313 312 311 311 313 317 317 316 316 316 314 313 312 312 312 318 326 342 345 345 346 345 344 343 342 341 339 338 336 337 337 337 337 337 336 336 337 337 337 334 333 332 330 330 330 329
303 305 308 311 312 313 310 313 314 315 316 316 315 314 314 313 313 314 317 316 323 341 344 345 345 345 344 343 342 340 340 341 341 340 339 339 339 338 337 336 335 336 335 334 333 331 331 330 328
302 303 306 309 312 312 311 313 313 314 316 317 315 314 314 313 312 315 317 318 318 317 338 343 345 344 344 343 343 341 341 342 342 341 341 340 337 335 337 336 335 335 334 334 333 331 330 328 327
302 304 306 310 312 312 313 313 314 314 316 317 317 313 313 313 313 315 316 318 318 319 317 336 343 343 344 343 342 342 342 341 341 341 340 338 335 335 336 336 335 334 334 333 333 331 331 329 328
303 302 303 306 309 311 313 314 315 314 315 316 316 314 312 313 314 315 317 317 318 319 317 327 340 342 343 343 341 340 341 340 338 338 337 335 335 333 334 336 334 334 332 332 332 332 330 329 328
304 303 302 304 307 308 310 319 317 317 317 315 316 313 313 312 312 312 314 316 316 316 315 325 337 341 342 342 341 340 339 338 337 337 336 334 334 334 333 335 333 334 333 331 332 331 329 329 328
307 304 303 302 303 305 310 318 319 319 318 318 317 314 313 314 313 320 321 321 322 323 323 334 338 341 342 342 341 340 338 337 337 337 336 335 334 332 333 334 334 333 333 331 332 330 329 328 327
313 307 304 303 304 306 318 322 318 314 314 318 315 313 318 322 321 320 319 316 315 316 319 325 338 341 342 342 340 338 337 336 337 335 335 335 332 331 333 333 334 333 332 330 330 329 328 327 325
310 310 306 304 304 314 316 323 317 310 312 316 321 324 320 317 315 314 312 311 309 310 312 316 321 331 341 340 340 338 338 337 336 334 334 334 333 332 332 332 333 333 332 329 328 328 326 325 324
309 311 312 314 316 317 316 320 312 315 319 324 323 319 316 312 310 308 307 306 306 306 307 311 315 319 323 337 339 338 338 337 334 333 332 332 333 332 331 331 333 333 331 329 328 326 324 323 323
311 312 309 314 317 316 314 320 316 323 324 321 318 314 311 308 306 305 303 303 303 303 304 307 308 313 318 321 334 338 338 336 335 333 332 331 330 331 332 332 332 332 330 328 326 323 321 322 322
311 310 310 313 317 317 314 315 315 324 319 316 313 309 308 306 304 303 302 301 300 302 302 304 306 308 312 320 323 335 336 335 334 333 332 332 331 331 330 331 331 330 329 325 325 320 320 322 322
313 312 311 316 318 318 313 322 320 316 315 312 310 308 305 304 302 301 300 299 299 300 301 302 303 305 309 315 326 327 335 334 333 333 333 332 332 331 330 330 330 330 327 325 324 321 319 320 323
315 311 313 314 316 317 320 322 320 317 312 310 308 306 304 301 300 300 299 299 299 299 299 300 301 302 306 312 324 327 334 333 333 332 332 332 331 330 330 329 329 329 327 325 324 321 320 322 322
314 315 317 315 318 318 327 317 310 308 308 305 306 303 302 301 300 299 299 298 298 298 298 299 299 300 302 307 321 331 334 333 333 333 333 332 331 330 329 329 328 326 326 324 323 322 320 321 322
316 317 317 312 320 322 321 314 306 303 304 303 303 302 300 299 299 298 297 297 297 297 298 298 298 298 300 303 312 325 332 333 332 332 332 331 330 330 330 328 327 326 327 325 323 322 321 322 322

GFSSGP_925_thetae_120.txt.gz
Theta_e
311 311 316 312 308 305 306 307 308 311 312 312 313 314 315 322 337 336 341 342 335 337 340 339 338 338 337 336 335 333 332 332 332 335 338 339 338 338 338 338 338 338 341 339 339 339 339 338 337
309 316 315 307 304 303 302 306 309 308 309 309 312 315 321 327 337 342 342 341 338 338 341 339 338 338 338 337 337 335 333 332 332 332 333 334 336 337 337 338 338 338 341 339 338 338 338 337 337
313 317 310 311 304 303 303 305 307 309 309 310 311 314 317 333 341 341 341 340 340 341 340 339 339 339 338 338 337 337 335 333 332 332 333 333 335 336 337 338 339 341 342 341 343 337 337 336 335
314 312 309 312 311 309 305 309 309 310 311 310 312 311 313 331 341 341 341 340 339 340 339 339 339 339 339 338 338 338 336 334 333 333 333 334 335 336 337 339 340 342 341 344 344 336 335 334 334
313 308 307 313 314 312 309 309 310 312 312 312 312 312 313 334 341 341 341 340 340 340 340 340 339 339 339 339 338 338 337 336 334 333 333 334 335 336 337 338 340 340 341 341 336 334 334 335 336
306 309 312 309 308 312 311 311 312 313 312 312 312 312 322 334 341 342 341 340 339 339 340 340 339 339 338 338 338 337 337 336 335 334 334 334 334 336 337 338 339 339 340 339 335 334 334 335 336
307 311 310 312 312 313 312 311 311 312 311 311 312 313 315 333 340 341 341 340 339 339 339 339 338 338 338 337 337 336 336 336 335 334 334 334 335 336 336 338 338 337 336 335 334 334 334 335 336
309 309 313 311 311 311 312 313 313 312 313 313 314 313 315 328 340 340 340 339 339 338 338 337 337 337 337 336 336 335 334 334 336 335 335 335 335 336 336 337 338 337 335 334 333 334 334 335 336
309 313 313 312 314 313 312 315 313 312 312 313 313 316 318 326 339 337 337 338 339 339 338 337 336 337 336 336 335 334 334 335 336 337 336 336 336 336 337 337 338 337 335 334 333 333 334 334 335
309 310 314 312 313 314 314 314 314 314 315 314 313 314 326 339 339 337 336 336 337 337 338 336 336 336 336 336 335 334 334 336 338 338 337 337 336 336 337 337 339 338 336 333 333 332 334 333 333
310 312 312 313 314 312 313 312 312 313 315 314 314 312 330 337 339 337 336 334 334 335 335 335 335 335 336 336 337 336 336 337 337 337 338 337 337 337 337 337 339 339 336 334 334 333 333 332 331
301 302 306 306 304 303 303 308 309 308 311 314 313 313 318 332 336 339 338 335 334 333 334 335 335 335 335 335 337 340 339 337 337 336 337 339 338 338 337 337 338 338 337 335 333 333 332 331 330
306 304 303 302 302 302 305 306 305 307 308 309 312 313 313 312 328 337 340 340 338 334 334 334 335 334 335 335 336 340 340 337 335 335 335 336 339 338 338 337 337 337 337 336 334 333 332 331 330
302 300 301 301 300 301 303 304 307 309 308 308 310 312 312 312 312 329 338 340 341 338 333 334 334 334 334 334 334 335 337 337 335 333 334 334 338 339 337 337 337 336 337 336 335 334 332 331 330
301 301 301 301 300 302 305 306 306 306 308 309 308 309 312 313 312 318 332 337 339 341 338 334 333 334 333 332 332 332 331 332 333 332 332 334 335 336 335 336 337 336 336 335 335 334 332 332 331
301 300 300 301 300 300 302 301 304 307 308 309 309 309 310 312 311 313 322 333 337 340 341 338 335 334 333 332 332 332 332 331 331 331 332 332 334 333 334 335 336 336 336 334 334 333 332 331 330
299 300 300 300 300 300 301 302 303 304 307 308 309 309 308 311 309 312 312 322 333 337 341 342 340 336 333 333 333 331 332 332 332 332 332 332 333 333 333 334 334 336 336 334 333 332 330 329 329
303 300 300 300 301 303 303 302 301 301 302 305 306 308 308 309 311 313 313 313 319 334 339 341 342 341 339 335 335 333 333 332 332 331 331 331 332 333 333 333 334 335 335 334 333 332 330 329 328
301 302 302 302 303 304 304 303 302 303 303 302 307 307 309 309 311 313 314 314 311 311 324 339 342 342 341 339 337 336 336 335 334 333 332 331 332 332 333 334 335 335 335 333 334 333 331 329 330
299 300 300 301 302 303 304 306 303 302 302 301 304 305 308 309 313 315 312 312 313 315 316 313 334 342 342 341 339 339 338 337 336 336 336 335 334 336 335 336 336 336 335 334 334 332 330 329 329
303 302 302 300 300 301 306 307 304 303 302 301 302 308 312 313 314 311 309 307 308 310 312 314 318 334 341 341 340 340 339 338 337 337 337 337 337 338 337 337 337 335 334 333 333 330 330 328 328
305 303 303 303 303 307 306 311 306 304 304 313 310 307 305 304 304 304 304 305 303 304 310 313 318 328 336 341 340 339 338 337 337 336 336 338 340 339 339 338 337 334 334 333 332 329 328 329 326
306 306 306 305 305 307 308 307 303 305 317 312 308 306 304 302 300 300 300 301 301 302 305 309 312 319 329 338 340 340 338 338 337 337 336 337 334 336 339 338 337 334 333 333 332 330 328 327 328
305 306 306 307 309 311 308 305 306 315 315 311 307 304 303 302 301 301 300 300 300 300 301 305 307 310 316 327 332 335 337 337 336 335 335 334 335 334 336 336 335 334 333 331 333 330 329 328 328
305 306 305 306 306 312 308 304 309 309 309 308 306 304 302 301 300 300 300 300 300 300 300 302 303 305 311 316 319 324 329 332 336 335 334 333 332 333 333 332 333 333 332 331 331 329 328 327 327
304 305 307 310 312 315 313 313 312 307 305 303 303 303 302 301 300 300 299 299 298 299 299 299 300 302 303 309 315 317 319 323 328 334 333 333 333 333 330 330 332 331 331 330 330 330 330 329 327
305 307 305 308 310 312 317 312 309 305 303 302 301 301 301 300 299 298 298 298 297 297 297 298 298 299 300 302 305 310 315 318 321 328 333 332 332 329 325 327 330 331 330 329 329 329 328 328 327
307 311 313 310 315 315 318 312 308 304 303 301 300 299 299 299 298 297 297 297 296 296 296 296 296 297 298 299 301 304 306 311 318 324 330 332 333 328 326 329 330 329 330 327 328 329 327 327 326
313 312 313 313 314 317 317 311 306 303 302 300 299 298 297 297 296 296 296 295 295 295 295 295 295 295 296 297 298 301 303 306 315 323 327 330 331 332 331 330 330 328 326 327 327 327 326 327 324
315 312 311 310 310 315 308 306 304 301 300 299 298 298 296 295 294 294 294 294 294 294 294 294 293 293 294 295 296 297 299 301 305 314 322 329 329 330 329 328 328 326 327 326 326 325 325 325 322

GFSSGP_925_thetae_123.txt.gz
Theta_e
312 311 315 313 312 312 311 311 310 312 314 313 313 314 316 320 337 332 340 339 338 341 339 338 338 336 334 333 333 333 333 333 334 338 340 338 339 338 337 337 338 341 338 340 340 339 339 338 338
309 315 314 313 310 309 310 310 311 312 312 311 313 315 318 322 326 335 344 341 339 341 339 338 337 336 335 333 333 333 333 334 335 339 340 340 339 338 338 338 339 339 339 338 339 339 338 337 337
314 316 315 316 309 310 310 308 311 311 311 311 313 314 315 324 338 343 341 340 340 343 339 338 337 337 336 335 333 333 332 334 335 337 339 338 337 338 338 337 337 338 339 339 339 339 337 337 336
314 316 314 313 313 312 309 311 310 312 313 312 313 314 315 322 339 341 341 340 343 344 341 338 338 337 337 336 335 333 332 332 332 333 334 336 336 336 337 337 337 341 341 342 341 337 336 335 335
312 313 311 315 314 313 313 312 313 314 314 314 313 314 315 318 338 341 341 340 343 343 341 338 338 338 337 337 336 335 333 332 332 332 333 334 335 335 336 337 340 342 341 343 337 336 334 334 334
311 313 313 312 311 312 313 313 313 314 314 315 313 313 317 327 339 343 341 342 343 343 340 339 338 338 338 338 337 337 335 333 333 333 334 334 335 336 336 337 341 341 340 338 334 334 333 334 335
308 313 312 312 313 314 314 314 315 316 315 315 314 315 317 322 333 336 342 341 341 341 340 340 339 339 339 338 338 337 336 334 333 333 334 334 335 336 337 338 339 340 340 337 334 333 333 334 335
313 313 314 313 315 316 313 314 314 314 315 314 314 316 318 319 330 336 341 340 341 340 340 340 340 340 339 339 338 338 337 336 334 334 334 334 335 337 337 338 338 339 337 335 334 333 334 334 335
311 317 317 316 315 316 314 316 316 315 317 316 316 317 318 336 337 339 340 340 341 340 341 341 340 340 339 339 338 337 337 336 335 334 334 335 339 339 338 339 337 337 335 334 333 333 334 334 335
313 316 316 315 315 316 316 314 313 315 316 316 318 316 316 324 339 339 340 341 340 340 339 340 340 340 339 339 338 338 338 338 337 336 336 338 339 340 341 339 338 337 335 334 333 333 334 334 335
311 312 313 313 312 306 307 308 310 310 312 315 315 314 315 314 318 330 337 338 338 338 339 339 339 339 338 339 339 339 340 339 338 337 336 336 337 337 338 339 340 339 337 336 335 334 334 334 334
303 303 305 304 304 303 304 305 307 308 309 309 309 310 310 312 313 316 328 339 337 335 337 338 338 338 338 338 338 339 338 343 340 338 337 337 337 337 339 339 339 340 339 337 337 336 333 333 332
307 307 303 303 302 303 303 303 304 305 306 308 309 310 310 312 314 315 321 328 339 336 334 337 336 337 337 337 338 339 338 339 343 340 338 337 337 337 337 338 338 339 338 336 334 334 332 332 330
302 302 303 303 303 302 303 303 303 305 306 308 308 309 310 311 312 312 314 323 337 338 335 335 336 336 336 337 336 337 338 338 343 339 338 338 337 337 337 337 337 338 338 336 335 333 333 333 331
303 303 303 303 302 303 302 302 303 306 305 307 309 310 312 312 312 313 313 315 325 333 338 334 333 336 336 336 335 335 336 337 340 338 338 338 339 337 336 337 337 337 338 337 335 334 333 332 331
303 303 302 302 302 302 302 302 303 303 304 305 305 307 310 310 311 312 313 314 318 328 340 338 334 334 336 336 335 334 335 336 336 334 335 338 340 339 339 340 337 336 336 337 336 335 334 332 332
302 303 303 303 303 303 303 303 303 304 304 305 306 305 305 310 310 311 312 313 316 327 336 340 337 334 333 335 335 335 333 334 335 334 334 335 336 337 338 339 336 336 336 336 336 335 333 332 331
302 303 303 303 303 303 303 303 304 304 305 305 306 305 305 305 309 311 312 312 312 319 333 340 340 337 334 335 335 335 334 334 333 331 331 332 335 337 339 335 334 334 336 335 334 332 331 330 329
303 303 302 302 303 302 303 303 304 304 305 305 307 306 305 305 308 312 316 315 312 314 330 339 342 340 337 335 335 335 334 333 333 333 333 332 332 335 335 334 333 334 334 334 333 332 330 329 330
302 303 303 303 303 304 304 304 304 304 305 307 307 306 305 305 307 314 312 310 310 311 313 323 335 342 340 338 336 336 335 335 334 333 333 333 332 331 332 332 332 333 334 334 332 331 329 329 329
303 305 305 305 304 304 305 305 306 307 308 310 309 308 307 307 308 307 307 307 307 307 309 313 317 336 341 341 340 338 338 337 335 334 334 333 333 332 331 332 332 332 333 334 333 332 331 330 328
306 305 304 305 306 307 305 306 307 309 311 311 307 305 304 304 304 304 304 304 304 304 306 310 316 320 331 339 340 338 339 338 337 336 335 334 335 334 333 332 333 333 334 333 334 332 332 331 329
307 305 305 306 307 307 305 308 308 310 309 310 307 304 303 302 302 303 303 302 302 302 304 308 313 315 323 331 338 339 338 339 339 337 335 335 337 335 334 334 334 334 334 334 332 332 331 330 329
305 306 307 308 308 309 309 310 310 308 307 306 304 304 302 302 301 301 300 300 300 301 303 305 308 309 312 322 329 334 338 338 336 338 337 336 336 335 335 335 334 334 334 332 331 333 331 330 328
306 307 307 309 313 310 309 310 311 307 304 303 302 301 301 301 300 301 300 299 299 299 300 301 303 304 306 310 315 319 324 327 330 337 336 335 334 333 334 334 334 335 334 334 331 331 331 330 329
308 307 305 306 307 307 307 316 310 305 303 301 299 299 298 299 299 299 299 298 298 298 298 299 300 301 302 305 307 313 316 316 319 323 329 335 334 333 333 332 333 333 334 333 331 330 330 330 329
306 307 306 307 306 309 313 311 309 303 301 300 299 298 297 296 297 298 297 297 297 297 297 296 298 299 300 301 303 305 307 311 314 316 321 327 333 333 333 332 332 332 331 329 331 330 329 329 328
310 309 312 310 313 317 316 311 306 302 301 300 299 297 296 295 294 295 296 295 295 295 295 295 295 296 296 298 299 300 302 307 311 313 318 323 328 331 331 331 331 331 330 328 330 328 328 327 327
312 312 312 312 314 317 316 310 304 301 300 299 298 296 295 295 294 293 293 293 293 293 294 294 294 294 294 295 296 298 298 299 302 305 311 317 325 330 330 330 329 330 328 329 328 326 327 327 326
313 314 313 315 314 315 313 306 302 300 299 298 296 295 294 293 293 292 291 291 292 292 292 292 292 293 293 293 294 295 296 296 298 300 304 311 320 328 328 329 328 329 328 328 327 325 326 325 325

GFSSGP_925_thetae_126.txt.gz
Theta_e
315 314 316 317 317 315 316 315 315 316 318 318 318 317 316 320 322 332 342 343 345 344 348 340 338 335 335 339 340 341 342 343 343 341 339 339 337 337 337 337 338 339 339 338 340 340 340 339 338
313 315 316 316 316 317 319 317 315 316 316 316 316 317 319 321 326 330 337 345 344 345 348 346 337 335 334 335 335 335 335 338 341 341 340 338 338 338 337 337 338 339 338 339 339 340 339 338 338
315 316 318 318 319 321 321 315 315 315 315 315 316 317 318 320 325 331 342 345 344 345 347 347 338 335 334 333 334 334 334 335 338 340 339 338 338 338 338 338 339 338 338 338 339 339 338 337 337
316 317 316 318 320 319 316 316 315 315 317 316 316 317 317 318 330 336 342 345 344 345 346 347 338 336 334 333 333 334 335 336 338 339 339 340 339 338 338 338 338 338 338 338 339 338 337 336 336
314 317 321 321 321 320 318 318 317 317 318 318 318 320 319 322 328 333 345 345 344 346 346 346 338 336 335 334 333 333 335 337 338 338 339 339 338 338 338 337 337 338 338 340 337 337 336 335 335
317 318 321 323 322 319 318 319 318 318 320 320 319 319 320 323 325 331 342 346 345 347 347 347 338 337 336 335 334 333 333 335 336 337 336 336 337 337 338 337 338 340 340 340 336 336 335 334 334
317 318 321 321 321 320 319 320 320 320 321 320 319 319 321 321 328 334 340 347 348 348 348 348 345 339 337 336 336 335 333 333 333 334 334 335 336 336 337 338 340 341 340 336 335 334 333 334 335
317 318 319 319 319 320 319 318 319 319 319 319 318 320 321 324 330 332 341 345 347 348 348 349 347 345 343 341 337 336 335 333 333 334 334 335 336 337 337 339 340 341 340 336 333 333 334 334 335
317 318 317 318 318 318 318 319 319 319 319 320 320 321 321 319 319 327 332 341 346 347 347 348 347 346 346 345 343 338 336 335 334 335 336 337 341 341 340 341 341 340 340 336 334 334 334 335 335
314 315 314 317 317 317 318 317 317 317 318 318 318 320 319 317 317 318 320 329 340 346 346 346 346 346 346 345 345 343 342 340 340 341 341 341 342 342 341 341 341 338 337 336 334 334 334 335 337
311 312 313 314 315 312 313 313 314 314 315 316 315 315 315 314 314 315 316 318 327 342 344 344 346 345 345 343 343 343 343 342 342 342 342 342 343 343 342 342 340 340 338 338 336 335 336 337 337
306 308 309 308 308 307 308 308 308 308 309 310 310 310 311 312 313 314 315 317 321 332 341 342 343 344 344 342 342 342 342 343 342 342 343 342 343 343 342 342 341 341 340 339 337 337 337 338 337
308 308 308 307 306 306 306 306 306 307 308 308 309 310 311 312 312 312 312 314 316 322 336 339 341 342 342 342 340 341 341 342 342 342 343 343 341 342 342 342 342 341 341 340 339 338 338 337 336
306 306 306 306 306 306 305 306 306 307 308 308 308 309 309 310 311 313 313 313 314 318 330 339 340 341 341 340 340 340 340 339 340 341 341 343 341 341 341 342 342 342 341 340 339 338 337 336 336
306 306 307 307 305 305 305 305 307 307 307 306 307 308 308 308 308 309 311 314 315 315 322 333 339 340 339 339 340 339 338 339 338 340 342 342 341 341 342 341 342 341 341 341 340 338 337 336 336
307 307 308 306 306 306 305 307 307 306 306 307 307 307 307 308 308 307 308 312 314 315 316 321 336 338 339 339 338 338 338 338 338 339 339 342 342 340 339 340 340 340 340 340 339 338 336 336 336
309 308 307 306 306 306 306 306 307 307 307 307 308 307 307 308 309 307 307 309 312 314 316 319 332 338 338 338 338 338 337 337 337 337 337 338 340 340 339 339 338 339 338 336 338 337 336 336 336
306 306 306 306 306 306 306 306 306 307 307 307 307 307 307 308 309 308 307 307 312 316 316 316 327 339 339 338 338 337 337 336 336 335 335 336 338 339 337 337 337 337 338 335 338 334 334 336 335
305 305 305 306 307 306 306 306 307 308 307 308 309 310 310 310 310 308 307 310 316 316 319 317 323 337 340 339 337 337 337 336 336 335 336 336 336 336 338 336 335 337 338 337 336 335 333 334 335
305 305 306 306 306 306 306 307 308 307 310 313 313 312 312 311 310 311 312 313 314 315 316 318 325 331 340 340 337 335 335 335 336 336 336 336 336 336 336 336 336 337 336 336 335 334 332 332 333
307 307 307 307 307 307 307 307 306 309 312 309 309 308 308 307 307 309 310 311 311 312 313 315 322 335 339 341 339 337 336 337 337 337 336 336 336 337 335 336 338 336 335 335 333 332 333 332 332
307 307 307 307 307 307 307 309 308 311 311 307 305 305 304 303 303 304 306 307 307 307 308 313 320 325 336 341 341 341 340 341 340 339 339 338 336 336 337 336 337 336 335 335 334 333 333 333 331
307 307 307 307 309 309 307 308 310 310 307 305 304 301 301 301 301 302 302 303 303 303 305 308 314 320 324 334 338 340 341 341 341 340 340 337 336 337 337 337 337 336 334 335 333 332 333 334 335
307 308 308 309 310 311 309 311 313 309 306 304 302 301 300 298 299 299 300 300 301 301 302 304 307 309 314 320 327 337 338 341 340 340 340 338 336 336 336 338 337 335 334 334 334 334 334 334 334
308 310 311 310 315 311 309 309 308 305 304 303 301 300 298 298 296 297 298 299 299 300 300 302 303 305 307 312 313 317 321 325 329 333 336 338 336 336 335 336 335 334 334 334 334 334 333 333 334
311 310 309 310 309 311 309 316 310 306 303 301 300 299 297 296 295 294 296 296 297 298 298 299 300 301 303 306 308 309 312 314 317 320 323 330 333 336 335 334 334 334 334 334 335 335 334 334 334
312 311 308 310 312 314 315 313 309 304 302 301 299 297 296 295 294 294 293 293 294 296 296 297 299 298 300 302 305 306 306 310 313 314 317 319 323 329 333 333 333 333 333 334 335 334 333 333 334
311 312 314 314 315 315 317 313 310 304 302 301 298 296 295 294 293 292 292 292 292 293 295 295 297 298 298 298 301 302 303 304 305 307 307 309 316 321 326 332 332 331 332 333 333 332 333 332 332
317 315 312 313 314 317 317 314 304 302 300 299 297 295 294 293 293 291 291 290 291 290 292 293 294 296 296 296 297 298 299 300 300 301 301 303 309 318 323 329 331 331 331 332 331 332 331 331 330
313 314 312 315 316 315 319 312 302 301 299 298 297 294 293 293 292 291 290 289 290 289 290 291 292 294 295 295 295 295 295 296 296 296 298 301 303 307 316 324 329 329 330 332 331 329 329 328 328

GFSSGP_925_thetae_129.txt.gz
Theta_e
314 318 317 318 320 319 320 320 320 319 319 321 321 320 319 318 322 328 334 345 346 343 351 345 342 338 338 340 341 342 342 340 339 337 338 338 337 338 339 339 340 341 341 339 340 339 339 339 338
319 317 318 322 321 323 323 322 320 320 319 318 318 318 319 321 324 329 333 341 344 344 351 348 342 337 338 340 341 342 343 342 341 340 339 339 338 337 338 339 339 339 340 338 340 340 339 339 338
317 318 323 323 324 324 324 321 321 319 318 318 319 319 319 320 326 332 334 340 343 345 349 348 340 336 337 339 340 341 342 343 343 341 339 339 338 338 338 338 338 339 339 339 341 340 339 338 338
319 320 322 323 324 324 322 320 320 319 321 320 320 321 320 320 328 330 336 346 345 346 348 349 339 336 336 337 337 337 337 339 341 341 341 339 338 338 338 338 339 339 339 340 340 339 338 337 337
318 323 325 326 325 325 324 322 323 322 322 322 322 323 323 323 326 331 336 347 346 347 347 348 340 335 335 334 334 334 334 335 338 340 340 339 339 339 338 338 339 339 339 340 339 338 337 336 336
321 322 324 325 325 325 324 323 323 322 323 323 324 323 323 325 329 332 337 344 346 347 348 352 342 336 334 334 333 334 334 335 338 340 340 339 339 338 338 338 338 339 339 339 338 337 336 335 334
318 321 322 322 323 324 324 323 323 322 322 323 322 322 324 325 326 329 337 344 350 348 350 352 346 340 335 334 333 334 335 337 338 339 340 340 339 338 337 337 338 340 340 339 338 336 336 334 334
320 319 319 320 321 321 322 321 321 321 322 321 322 323 324 324 322 321 327 339 348 351 350 350 347 345 343 339 334 334 334 336 338 339 339 338 338 337 337 338 338 340 340 339 336 335 334 334 335
317 317 318 318 319 320 320 319 320 320 320 319 321 322 322 321 321 320 321 322 337 348 350 349 349 347 345 345 340 335 334 334 335 337 338 338 342 342 341 340 341 341 340 339 334 334 334 334 335
315 315 315 317 318 319 319 318 317 316 317 317 319 319 320 319 317 317 318 320 321 332 348 349 349 348 347 346 345 342 341 339 340 341 342 342 342 343 342 341 343 339 340 339 335 334 334 335 337
312 313 314 314 315 315 314 312 313 312 312 314 314 314 314 313 312 313 315 318 319 320 337 348 348 348 348 346 345 345 343 342 342 343 343 342 342 343 342 343 342 342 341 340 336 335 337 337 337
308 310 310 310 310 310 310 310 309 310 311 311 311 311 311 311 313 314 314 315 316 318 325 344 346 347 348 345 343 343 343 343 343 343 343 343 343 342 343 342 342 341 340 339 339 338 337 337 338
310 310 311 311 309 309 309 309 309 309 310 310 310 310 311 312 312 312 313 314 315 316 318 325 344 345 347 346 343 343 342 342 342 342 343 343 342 343 344 343 341 341 341 339 339 338 337 338 338
310 309 309 309 310 309 309 309 309 309 310 310 310 309 310 310 310 310 310 311 313 316 316 319 335 344 345 345 344 342 342 341 344 344 343 343 342 342 343 341 341 341 341 340 339 338 337 338 337
309 308 310 310 309 308 309 308 310 310 310 309 309 310 310 310 310 310 309 310 310 312 315 317 326 341 344 344 343 342 340 341 343 342 343 343 343 342 341 342 341 342 341 340 338 337 337 337 336
310 311 312 310 309 309 308 309 310 310 309 309 309 309 310 310 310 309 309 310 310 310 313 316 318 335 343 343 342 342 340 340 340 340 341 342 342 342 342 342 342 341 342 341 340 339 339 338 336
312 312 311 310 310 309 309 309 309 310 309 309 310 310 310 309 310 309 310 310 310 309 310 313 316 319 340 343 342 341 341 340 339 339 340 341 340 342 343 340 341 342 341 341 341 340 339 338 337
310 310 309 309 309 309 309 309 309 309 309 309 310 313 314 314 314 313 312 312 310 310 314 319 320 321 333 341 341 341 341 340 339 338 339 340 341 340 342 340 339 340 340 341 339 339 338 337 336
308 308 308 309 309 309 309 309 309 310 311 314 314 313 312 311 311 309 310 311 312 314 316 317 319 320 323 341 341 342 340 340 339 338 337 338 340 339 340 340 338 337 339 338 337 337 336 338 337
308 309 310 310 309 309 309 309 309 310 314 312 310 309 309 308 307 306 306 307 310 312 314 315 316 317 321 335 340 341 340 339 339 337 337 337 338 339 339 339 338 336 336 337 337 336 335 337 336
310 310 310 309 309 309 309 309 309 310 312 310 308 306 305 304 303 303 303 303 305 307 308 310 313 317 319 326 338 340 340 339 339 338 337 338 338 338 337 337 338 336 336 337 336 336 335 335 335
311 310 309 309 310 310 309 309 312 313 312 308 306 304 302 301 300 300 300 300 301 303 304 304 308 314 321 324 329 340 339 340 338 338 337 337 338 339 339 337 338 337 337 337 337 335 334 334 334
310 310 309 309 310 311 310 310 314 311 309 307 304 302 300 299 299 297 298 297 299 300 301 301 305 310 314 318 321 337 338 339 337 338 338 339 339 339 339 339 337 338 339 337 338 335 334 334 334
310 311 312 312 312 313 311 311 315 310 306 305 302 301 299 298 298 297 295 295 296 297 298 300 303 305 310 314 315 327 338 338 338 338 340 341 340 339 339 339 339 339 339 339 336 337 334 334 335
311 315 317 315 316 315 310 311 312 307 305 303 301 300 298 297 296 296 294 293 293 295 296 299 301 302 305 309 310 314 321 330 329 324 324 338 338 337 337 336 338 339 340 339 337 337 335 334 336
313 314 315 312 312 312 312 316 315 307 304 302 300 299 297 296 295 294 293 291 292 292 295 297 300 300 302 306 306 308 311 316 318 322 326 324 327 333 338 338 337 337 338 337 336 337 336 335 335
315 314 314 313 313 315 317 313 310 307 304 302 299 298 297 295 294 293 292 290 291 291 292 295 298 299 300 301 303 304 306 307 310 311 313 316 318 322 327 333 335 334 335 335 335 336 336 336 336
313 314 316 314 317 318 315 319 317 306 302 300 300 297 295 295 293 293 291 290 290 289 291 292 295 297 298 298 299 300 301 302 303 304 304 306 308 311 315 323 331 334 333 332 332 333 335 336 335
316 316 315 314 315 318 319 318 305 302 301 300 298 296 295 294 293 292 291 289 289 289 290 290 293 296 297 297 298 297 298 299 299 298 298 300 301 303 306 311 323 331 333 332 331 332 333 333 334
314 314 316 317 317 318 321 316 303 301 300 298 296 295 294 294 293 291 290 289 289 290 289 290 291 293 295 295 296 295 296 297 297 296 295 296 296 297 298 301 305 308 315 319 320 327 332 332 333

GFSSGP_925_thetae_132.txt.gz
Theta_e
314 320 321 320 320 321 320 321 322 320 320 321 321 319 318 318 319 331 339 339 344 352 345 343 341 339 337 337 339 340 342 342 336 335 335 336 335 336 336 339 342 343 342 340 339 339 340 339 337
317 320 319 321 323 322 323 324 320 320 318 318 319 318 318 319 328 330 336 340 342 349 350 343 341 339 337 338 340 341 342 340 337 336 337 337 337 337 337 338 341 341 341 339 340 339 339 339 338
314 320 321 324 324 323 324 322 320 319 319 320 320 320 320 319 328 330 334 343 344 345 351 349 342 339 338 339 341 342 341 340 340 338 338 339 337 337 337 338 339 340 340 340 341 340 339 339 338
320 321 321 324 325 324 325 321 321 321 322 321 321 322 322 324 327 332 335 345 346 346 351 349 345 338 338 340 342 342 342 342 342 341 338 339 338 337 337 338 338 339 340 341 342 340 338 337 337
319 321 324 325 325 325 325 325 323 323 323 323 323 322 324 327 330 331 338 344 347 349 350 348 346 338 338 339 340 341 341 342 342 342 339 340 338 338 338 337 338 338 339 341 342 339 337 336 336
320 321 323 324 324 325 326 324 323 323 323 324 324 324 324 327 326 328 339 344 348 352 351 348 345 337 337 338 338 337 336 336 338 341 340 340 338 338 338 338 338 338 339 340 340 338 337 336 334
318 319 321 322 322 322 323 324 323 323 322 323 322 323 324 325 323 322 324 342 349 349 353 352 348 337 336 336 335 335 334 334 335 338 339 339 339 339 338 338 338 339 339 339 339 337 336 335 334
318 319 320 319 319 320 321 322 322 321 320 322 322 322 324 323 322 321 320 321 347 351 351 350 348 340 336 336 335 335 335 336 337 339 339 339 340 339 338 338 338 339 340 340 338 336 335 333 333
316 316 316 318 318 319 320 320 320 319 318 318 319 320 321 320 320 318 317 318 321 346 350 348 348 346 342 339 335 335 336 337 339 340 340 340 340 339 338 338 338 339 341 340 337 335 333 333 334
313 315 315 316 315 316 318 317 315 314 314 314 315 317 314 314 314 313 313 315 318 320 331 349 348 347 346 344 343 336 336 337 340 341 341 340 340 342 341 339 341 340 340 340 336 334 333 333 334
311 312 313 313 313 312 312 312 311 310 310 311 312 312 312 312 311 312 313 314 316 317 319 346 349 346 347 345 346 343 340 337 338 340 342 339 341 343 341 342 340 342 340 340 337 334 334 333 338
310 310 311 311 310 310 310 310 309 309 310 311 311 311 311 311 312 312 313 312 313 315 317 317 349 347 348 347 348 346 343 342 342 342 343 342 343 343 341 343 342 341 340 339 339 336 334 337 336
311 311 311 312 311 310 310 309 310 310 311 311 311 311 311 310 310 310 310 310 310 311 313 316 322 348 346 347 348 347 345 345 344 343 343 345 342 343 343 343 343 342 341 339 340 338 337 337 337
311 310 310 310 310 310 310 310 309 310 311 311 310 310 310 311 311 311 311 311 311 311 311 312 314 319 345 343 345 346 345 345 344 344 345 343 343 343 344 343 343 342 341 340 339 338 339 337 337
311 310 310 310 311 310 310 309 310 311 311 310 310 310 310 311 310 311 310 311 311 311 311 311 310 315 330 345 343 343 344 342 345 344 345 344 342 344 344 343 343 343 341 340 340 336 338 337 337
310 310 311 312 311 311 310 309 311 311 310 310 310 310 311 312 312 313 313 313 313 313 314 313 314 312 317 342 343 341 343 344 342 343 343 345 344 343 344 343 341 343 341 340 340 338 337 337 337
313 312 313 313 312 311 310 309 310 311 310 310 311 314 314 313 312 310 309 309 309 311 313 315 317 318 321 322 336 341 342 343 342 345 342 341 343 344 344 343 343 341 342 342 342 340 339 339 337
312 311 310 309 310 310 309 309 310 310 310 314 313 312 310 309 309 307 305 306 306 307 310 311 313 316 317 319 320 338 342 343 343 342 342 343 342 340 343 344 342 344 342 341 342 342 341 339 337
309 308 308 309 310 310 310 310 310 310 313 312 311 309 307 306 305 304 302 302 303 304 305 307 310 311 312 315 319 323 338 340 340 341 341 341 342 339 341 344 342 340 343 341 341 342 341 339 337
309 309 310 311 311 311 310 309 310 313 312 309 308 306 305 303 302 301 300 299 300 301 301 303 305 307 308 311 318 323 325 338 339 341 340 340 343 340 339 343 341 338 337 340 340 338 337 336 336
310 311 311 311 310 310 310 310 309 313 310 308 306 304 303 300 300 300 299 297 297 297 299 300 301 303 305 308 313 318 323 330 338 340 340 340 340 343 340 340 342 338 338 336 337 336 336 336 335
310 312 311 311 311 311 310 310 310 314 311 307 305 303 301 299 298 298 297 295 295 296 296 297 299 301 304 307 311 315 319 325 336 338 340 339 339 342 341 339 338 340 336 335 336 336 335 335 334
311 311 311 312 311 312 312 311 314 313 310 307 304 302 299 298 297 296 295 294 293 293 293 295 297 301 303 304 309 313 318 326 334 338 339 339 338 339 341 338 337 339 337 335 338 338 336 335 333
311 311 313 315 314 316 314 311 314 311 306 305 302 301 298 297 296 294 294 293 292 292 292 293 295 300 301 303 308 312 318 324 334 335 338 338 340 340 340 338 336 336 339 337 335 339 337 335 333
312 314 319 319 319 316 312 312 313 307 304 303 301 299 297 295 295 294 293 292 291 291 291 292 293 299 300 302 306 310 316 321 321 328 326 323 327 335 336 339 338 338 339 339 340 338 337 335 334
315 314 316 316 313 315 314 317 312 306 303 301 300 299 296 294 294 293 292 291 290 290 290 290 291 296 300 300 304 306 309 310 311 314 315 320 321 320 321 324 335 336 338 337 338 338 337 336 334
314 315 314 316 315 317 315 312 310 306 303 301 298 297 295 294 293 293 291 290 290 290 290 290 290 291 298 300 301 303 303 304 305 307 308 307 318 315 318 322 329 334 334 337 338 338 337 337 336
312 314 316 316 316 318 316 320 315 306 302 301 298 296 294 294 293 292 291 290 289 289 289 289 290 291 295 296 299 299 299 299 300 301 302 305 303 309 310 315 319 324 327 329 333 333 335 335 336
315 314 314 314 317 320 319 316 305 302 301 299 297 296 294 294 292 291 290 289 289 289 289 289 289 290 292 296 296 297 297 297 297 296 297 297 301 302 305 303 305 308 313 316 322 324 329 331 332
315 316 317 320 318 318 322 314 303 302 300 298 296 294 294 293 292 290 289 289 289 289 289 289 289 289 291 296 296 295 295 296 295 295 294 295 295 296 294 299 297 298 301 305 308 312 315 316 321

GFSSGP_925_thetae_135.txt.gz
Theta_e
315 317 320 319 314 313 314 315 316 313 315 315 316 315 315 315 321 344 338 344 346 346 342 341 339 340 337 337 337 338 339 341 335 334 335 333 333 333 334 337 339 340 339 336 337 338 338 338 337
315 318 319 314 316 317 316 316 313 314 316 316 316 317 316 326 329 332 337 345 348 347 342 341 339 340 337 337 338 339 340 341 336 335 336 335 334 335 335 338 340 341 340 338 338 338 338 338 337
317 317 314 316 315 317 317 315 313 315 318 318 318 318 318 323 331 333 341 347 348 350 345 341 340 339 337 338 339 340 341 340 337 336 337 337 335 336 336 337 338 339 339 339 340 339 338 338 337
318 316 313 317 320 319 320 320 318 321 318 318 319 320 322 329 331 338 336 347 349 351 349 346 341 339 337 339 340 341 341 340 338 338 337 338 336 336 336 338 338 339 339 339 340 339 338 338 337
319 313 318 319 319 319 321 321 321 321 322 322 320 321 327 324 331 337 335 344 349 350 349 348 344 340 337 340 341 341 341 340 340 340 339 338 337 336 336 337 338 339 339 340 340 338 337 336 335
314 313 316 317 318 319 320 321 322 321 320 321 321 324 324 322 322 337 340 335 350 350 348 347 345 342 337 339 341 342 342 342 342 341 340 338 338 337 337 337 338 338 339 341 340 337 336 335 334
315 312 314 315 316 316 318 318 318 319 320 321 320 320 322 321 318 316 315 325 347 351 352 348 348 345 337 337 339 340 340 340 341 341 340 339 339 337 338 337 338 338 339 339 338 337 336 334 332
314 313 316 315 317 315 317 317 314 314 316 317 317 318 318 316 312 312 314 313 326 351 351 347 347 347 338 336 337 337 335 335 336 338 339 339 339 338 338 338 338 338 338 338 337 337 335 334 332
312 310 313 314 314 313 315 314 311 309 309 312 313 313 310 311 311 311 311 313 314 336 350 347 347 346 342 336 336 336 336 336 336 338 340 340 339 339 339 338 338 338 339 338 338 335 334 332 332
308 308 312 313 311 310 310 310 310 308 307 309 309 310 309 310 310 310 310 310 310 310 313 349 348 346 345 337 335 335 335 337 338 340 340 340 339 339 338 337 338 338 339 339 337 333 333 332 332
308 309 310 309 310 308 308 309 308 307 307 308 308 308 308 309 309 309 309 309 309 310 310 311 341 347 346 344 340 339 335 335 338 340 340 339 340 339 338 337 338 340 339 339 338 333 332 332 333
308 308 309 308 309 309 309 307 307 307 308 309 308 308 308 307 307 309 309 310 310 310 310 310 310 324 342 343 344 343 343 335 335 339 340 340 340 341 340 340 339 340 341 339 338 334 332 331 336
308 309 309 309 308 309 308 307 307 307 309 308 308 308 308 308 308 309 310 309 310 311 311 312 312 311 314 333 340 345 345 343 336 335 338 338 338 340 343 342 342 340 340 339 338 336 333 331 334
309 309 308 308 307 307 308 307 307 307 308 309 309 308 308 307 309 308 308 308 308 308 309 310 313 315 318 322 337 341 343 344 342 339 337 340 340 339 343 342 342 341 341 340 338 339 336 333 335
309 308 307 307 307 307 307 307 307 308 309 309 309 309 310 309 307 306 305 305 305 305 306 307 309 311 314 317 318 329 342 342 344 342 341 341 341 341 343 342 342 342 342 339 339 339 338 338 336
309 308 308 309 308 307 306 306 308 308 308 308 310 309 308 306 305 304 303 301 301 302 303 303 305 308 310 311 314 317 327 340 340 344 343 342 342 342 342 343 342 343 342 341 340 339 339 338 338
309 307 308 309 308 307 306 306 308 308 308 309 307 306 305 304 302 301 301 300 299 299 300 301 302 303 306 308 311 314 317 322 339 339 343 344 343 342 341 343 342 343 342 341 340 339 338 337 337
309 309 305 306 306 308 307 307 307 307 308 306 304 304 302 301 300 300 299 299 298 297 297 298 299 301 302 304 307 310 314 318 329 339 340 341 344 343 341 343 344 342 342 341 341 340 339 337 336
307 307 305 305 306 309 309 308 306 307 306 304 303 302 300 299 299 298 298 297 296 295 295 296 297 298 299 301 304 307 309 315 319 328 338 339 340 343 342 342 344 343 341 341 342 340 339 339 338
308 307 306 307 309 308 306 306 307 307 305 303 302 300 299 298 297 297 296 296 295 294 294 294 294 296 297 300 302 305 308 312 315 318 324 337 338 341 343 342 344 343 342 341 342 342 341 340 339
308 308 308 310 308 307 307 306 309 307 305 303 301 299 298 297 296 295 295 294 293 293 292 292 293 295 297 299 302 305 307 311 314 317 323 336 338 341 340 340 342 343 343 342 341 340 340 339 338
307 310 311 311 309 308 307 306 311 308 306 303 301 298 296 295 294 294 293 292 292 291 291 291 292 293 296 300 301 303 305 309 311 315 319 322 336 339 342 340 340 343 341 340 341 340 337 336 335
309 311 310 310 310 309 309 308 311 309 307 304 300 299 296 295 294 293 292 292 291 290 290 290 291 292 294 299 301 302 305 310 311 315 321 327 328 338 340 340 339 341 339 337 336 337 336 335 334
310 311 311 310 311 312 312 311 311 307 305 303 300 299 296 294 294 293 292 291 290 290 290 290 291 291 293 296 300 302 305 308 313 317 324 331 333 336 337 340 339 340 338 336 336 335 334 334 333
310 311 314 314 314 316 313 313 309 305 302 301 299 297 295 294 293 292 291 290 289 289 290 290 290 291 291 295 299 301 304 306 315 320 325 324 321 323 322 330 334 336 338 337 335 334 336 335 334
310 312 314 318 315 315 314 317 311 303 301 299 297 295 294 294 292 291 290 290 289 289 289 289 289 290 290 293 297 300 301 303 308 310 314 314 315 318 320 321 321 327 331 337 337 335 337 336 335
312 314 313 316 314 314 313 310 307 303 301 299 297 295 295 293 292 290 289 289 289 289 289 289 289 289 289 291 295 298 299 300 301 303 307 303 307 308 318 322 318 319 321 324 331 335 336 336 335
311 313 315 315 316 317 314 313 309 305 302 299 297 295 294 293 289 289 289 289 289 288 289 288 289 289 289 290 293 294 297 297 298 298 300 301 298 307 312 315 313 316 318 320 312 322 324 328 331
313 312 313 314 314 314 307 311 305 300 301 298 296 295 294 292 290 288 288 288 289 288 288 288 288 289 288 290 291 292 294 294 295 295 294 295 296 297 298 301 302 301 305 309 309 309 310 312 315
314 316 316 314 317 317 313 309 302 300 299 297 295 294 294 292 290 288 288 288 288 288 288 288 288 288 288 289 290 291 293 292 293 292 293 292 291 291 291 293 300 294 297 297 300 301 302 302 302

GFSSGP_925_thetae_138.txt.gz
Theta_e
315 316 317 318 313 310 314 315 314 313 315 314 313 318 323 321 340 342 340 346 346 341 341 339 339 339 338 338 338 337 339 337 335 335 334 332 332 333 334 334 334 335 334 333 334 336 337 337 336
315 317 317 311 314 315 315 314 313 314 315 316 316 315 321 331 332 335 343 346 347 345 342 340 339 339 338 337 337 338 339 338 335 336 335 333 333 333 334 337 338 337 336 336 337 337 337 336 337
318 317 313 313 311 315 316 315 315 313 317 318 318 322 324 330 332 337 347 348 348 347 342 341 339 339 337 337 338 339 340 339 335 336 336 335 334 334 335 337 338 338 337 336 337 337 337 337 336
318 313 310 315 319 317 320 318 319 317 318 317 321 327 326 332 337 342 349 349 349 349 343 341 339 339 338 338 339 340 341 339 336 336 337 337 334 335 335 336 337 338 338 338 338 338 338 337 336
317 309 315 318 318 318 318 316 318 319 320 322 323 323 321 323 335 334 345 349 350 349 348 346 341 339 338 339 340 340 341 339 337 336 337 337 335 335 335 336 336 337 338 338 339 338 337 336 335
311 309 314 317 317 316 316 312 318 319 318 319 322 321 319 313 312 313 323 339 349 348 348 347 346 342 338 338 341 341 341 340 338 338 338 338 337 336 336 336 336 337 337 338 339 337 336 335 334
312 309 313 315 314 315 316 314 310 314 311 317 319 318 315 310 310 311 312 324 350 350 349 346 347 347 343 337 339 342 342 342 341 340 339 338 338 336 336 337 336 336 337 339 338 337 336 334 333
309 310 315 315 315 315 314 314 310 307 310 311 312 309 309 310 310 311 311 310 314 320 339 347 345 345 345 339 336 339 340 342 342 342 341 339 339 337 337 337 336 336 337 337 337 336 335 334 332
308 308 310 313 312 312 310 310 308 307 308 309 310 308 309 309 310 310 310 309 308 308 311 326 345 345 344 340 337 337 337 337 338 340 341 340 340 339 338 337 337 336 336 336 336 336 335 334 332
306 306 309 310 310 309 309 309 308 307 306 308 308 308 308 309 308 307 307 308 310 310 311 311 313 326 344 339 337 335 335 335 336 336 340 341 340 339 339 338 337 337 337 337 336 335 334 333 331
307 308 308 309 309 308 308 309 308 307 307 308 308 307 307 308 308 308 308 308 308 308 309 310 313 315 317 329 340 336 335 334 334 336 338 340 341 340 340 339 339 338 338 338 338 335 333 332 331
306 306 307 307 308 308 309 307 307 306 307 307 306 307 307 307 307 306 306 306 305 305 306 306 308 310 312 316 319 331 340 336 334 335 338 340 341 340 340 339 338 338 338 338 338 336 332 331 331
306 307 307 307 307 308 308 307 307 307 307 306 307 308 306 306 305 303 303 302 302 302 302 303 304 306 307 310 313 316 321 339 339 334 334 338 340 340 340 339 338 337 338 338 338 337 333 331 331
307 307 307 307 306 307 307 306 308 307 307 308 309 306 304 303 302 301 300 300 299 299 299 300 300 302 303 305 309 311 314 318 338 339 335 335 337 338 339 340 339 338 337 338 338 337 335 332 331
307 307 306 307 307 307 306 307 307 307 308 310 308 306 303 301 300 300 299 299 298 297 297 297 298 299 300 302 303 307 310 313 316 333 339 336 337 337 338 339 341 340 340 339 339 337 336 335 332
309 307 307 308 307 307 306 305 307 306 308 306 305 304 302 300 299 298 298 297 296 295 295 295 296 297 298 299 300 302 306 309 313 316 337 340 337 338 337 338 342 341 341 340 340 339 338 337 335
306 306 306 308 307 305 306 306 306 307 306 304 302 301 300 299 298 297 296 296 295 294 294 293 294 295 296 296 298 300 302 305 309 311 315 330 340 339 338 339 341 342 341 341 341 339 338 338 337
307 307 306 305 306 306 306 305 305 304 303 302 300 299 298 297 297 296 295 294 293 292 292 292 293 293 293 295 297 299 302 304 306 308 311 315 332 339 340 340 341 342 342 341 341 339 339 338 337
307 306 305 304 305 307 305 305 305 303 302 301 299 298 297 296 295 295 294 293 292 291 291 291 291 291 292 294 296 298 301 303 305 308 310 310 313 329 338 339 341 342 341 341 341 340 339 338 337
306 306 305 305 307 307 305 306 304 303 302 300 298 297 296 295 294 294 293 292 291 290 290 290 290 291 292 293 296 298 301 303 305 306 309 310 311 316 333 337 339 340 341 341 341 340 338 337 338
307 306 306 306 308 307 306 306 307 304 302 300 298 296 295 294 294 293 292 291 290 290 290 290 290 291 292 293 295 298 300 302 304 306 308 310 313 309 327 336 339 341 341 341 340 340 339 338 337
308 307 309 310 308 308 307 307 308 306 304 301 299 296 295 295 293 292 291 291 289 289 289 290 290 290 291 292 294 297 300 302 303 306 308 309 311 314 315 325 335 337 340 340 340 340 339 339 337
308 310 310 310 309 309 309 307 308 307 306 302 299 297 294 294 292 291 291 290 289 289 289 289 290 290 290 291 293 295 300 302 304 307 308 309 311 315 312 321 328 336 338 340 340 339 339 339 337
309 310 311 310 308 311 311 309 309 305 304 302 299 297 295 294 292 291 290 289 289 289 289 289 290 290 290 291 293 296 299 302 304 306 308 311 315 321 329 321 327 330 334 338 339 339 339 338 336
309 310 311 313 312 314 313 311 307 303 301 299 298 296 294 293 292 290 289 288 288 288 288 289 289 290 289 290 292 295 298 300 302 305 309 315 321 320 324 325 323 321 323 331 337 337 337 336 335
309 311 313 318 317 315 313 315 308 302 299 298 297 295 294 292 290 288 288 288 288 288 288 288 288 289 289 290 290 293 295 299 300 301 303 308 311 313 314 322 320 320 322 324 332 333 335 334 334
310 311 312 314 314 312 311 308 305 301 301 299 296 295 295 289 288 288 288 288 288 288 288 288 288 288 289 289 289 291 292 293 297 297 298 300 304 305 311 315 317 318 322 320 321 324 324 329 332
311 313 315 314 318 316 314 311 305 305 301 299 296 295 294 292 286 287 287 288 288 288 288 288 288 288 288 289 289 290 290 291 293 293 293 295 296 299 302 305 308 309 314 317 317 317 317 321 316
312 311 312 314 315 317 310 310 305 302 298 295 296 295 293 292 285 285 286 287 288 287 287 287 287 287 287 288 288 289 289 289 291 292 291 291 292 293 296 295 296 301 303 300 301 300 301 306 313
313 312 313 315 316 315 308 309 300 298 297 297 295 294 293 291 287 287 287 288 287 287 287 287 287 287 287 288 288 288 288 288 288 289 289 288 289 289 290 291 293 293 293 295 294 294 294 295 296

GFSSGP_925_thetae_141.txt.gz
Theta_e
314 317 318 314 313 309 314 316 312 311 314 313 318 327 326 329 337 346 336 345 345 341 340 338 339 339 339 338 338 338 334 334 334 332 331 331 333 335 336 334 332 331 332 333 334 334 336 336 336
316 318 315 308 312 313 312 313 316 314 313 314 319 320 327 333 331 337 345 347 346 342 341 339 339 339 338 338 338 338 336 333 334 334 332 332 333 334 335 336 336 334 333 332 333 336 337 336 337
317 317 312 311 309 315 314 316 316 316 314 316 321 326 328 331 335 339 349 348 347 345 342 340 339 339 339 338 337 338 339 334 334 335 334 333 334 334 336 338 337 337 336 335 336 336 336 336 336
317 312 309 315 318 318 317 314 312 315 318 321 325 322 326 331 339 348 348 349 349 347 343 342 340 339 339 338 338 338 339 337 334 335 335 334 334 334 336 337 337 337 336 336 336 336 337 336 336
314 308 314 316 318 318 315 310 315 319 321 321 318 314 315 313 322 348 341 348 346 347 346 346 344 340 339 338 339 340 340 340 335 335 336 335 335 334 335 336 335 336 336 336 337 337 337 336 335
310 307 313 317 317 315 315 311 310 314 320 318 313 313 313 310 310 330 347 347 346 346 345 344 341 340 340 338 338 339 341 341 337 336 337 337 336 335 335 335 335 336 336 336 337 336 336 335 334
311 308 313 314 314 315 315 312 308 309 308 310 315 313 311 307 308 309 310 310 313 324 341 343 343 342 341 341 340 340 340 340 339 337 337 338 337 336 336 336 336 335 336 336 337 336 335 335 333
307 308 313 313 314 314 311 312 308 307 308 308 309 307 307 307 306 309 310 310 310 311 313 314 317 332 341 342 340 341 341 340 341 341 340 339 339 338 337 337 336 335 335 336 337 335 335 334 333
305 307 309 313 311 311 308 309 307 306 307 308 308 307 306 308 309 309 309 309 309 309 309 310 312 314 321 338 339 340 339 339 341 341 341 341 340 339 338 337 337 336 335 336 336 335 334 334 332
305 306 310 309 308 308 308 309 308 307 305 307 307 308 308 308 307 306 306 305 305 304 305 306 308 309 311 317 324 335 339 340 337 338 339 342 341 340 339 338 337 336 336 336 336 335 335 334 332
305 306 307 309 307 307 307 308 308 307 306 307 307 308 306 305 304 304 302 301 301 301 301 302 302 304 306 308 310 314 324 336 338 338 337 339 342 341 340 339 339 338 338 337 337 336 335 334 332
306 305 305 305 306 307 308 306 306 306 306 306 306 305 304 302 301 301 300 299 298 298 298 299 300 301 302 303 305 307 311 318 330 336 338 338 342 344 342 340 339 339 338 337 337 337 335 333 332
305 306 306 306 305 307 307 307 307 306 307 306 304 303 301 300 300 299 298 297 297 296 296 296 297 298 299 300 301 303 305 308 314 325 337 338 339 342 342 342 340 339 339 337 337 337 336 332 331
305 306 305 305 306 307 307 306 306 306 307 306 303 301 300 299 298 297 297 296 295 295 295 295 295 296 297 297 298 300 301 303 307 311 320 333 338 338 338 340 340 339 340 339 336 336 336 333 331
306 306 305 305 306 306 305 306 306 308 306 305 303 301 299 298 297 296 296 295 294 293 293 294 294 295 295 296 297 297 299 301 302 305 310 319 331 339 338 339 339 339 339 339 338 336 337 335 332
307 306 305 305 305 306 304 305 307 305 304 302 301 300 299 297 296 295 294 293 293 292 292 292 292 292 293 295 295 297 297 299 301 303 305 309 315 327 338 339 338 339 338 339 339 337 338 337 334
304 305 305 306 305 305 305 305 305 303 303 301 299 297 297 296 295 295 293 292 291 291 291 291 292 293 292 292 295 296 297 298 300 302 303 306 309 315 320 333 338 337 339 340 340 339 338 336 335
305 306 305 303 304 305 304 305 302 301 300 299 297 296 296 295 294 294 293 292 291 290 290 290 290 291 292 292 292 294 296 297 300 302 303 305 307 309 311 319 332 338 339 339 340 339 338 337 336
307 306 305 303 303 306 304 304 303 301 299 298 297 295 295 294 294 293 292 291 290 289 289 289 290 290 291 291 292 293 295 297 299 301 304 304 305 307 314 312 323 336 337 338 339 339 338 337 336
306 306 304 304 304 306 304 305 302 301 299 297 296 295 294 294 293 292 291 290 290 289 288 289 290 290 290 291 291 292 294 297 299 300 302 304 306 310 317 321 320 332 336 336 337 338 337 336 336
306 305 305 305 307 306 305 305 305 302 300 299 296 295 294 293 292 291 291 290 289 288 288 289 289 290 290 291 291 292 294 296 298 301 302 304 306 308 309 310 310 327 330 333 336 337 338 336 335
307 305 306 307 307 307 305 307 306 304 302 299 297 294 293 293 292 291 290 289 288 289 288 288 289 289 290 290 291 292 293 295 298 300 302 305 306 306 308 309 318 317 323 332 333 335 336 337 335
308 307 308 308 307 307 308 306 306 304 304 300 298 295 293 292 291 290 289 288 289 289 288 288 289 289 290 290 291 291 292 296 298 301 303 303 305 308 310 312 312 317 320 328 329 329 335 336 336
308 309 310 308 307 309 308 307 304 306 305 301 298 296 295 292 290 289 288 288 288 288 288 288 288 289 289 289 290 291 292 295 297 300 302 304 306 310 313 316 320 324 324 322 327 332 332 336 337
308 308 310 310 310 310 310 308 306 303 300 299 297 295 295 290 289 288 287 287 288 288 288 288 288 288 288 289 289 290 291 292 294 299 300 302 304 310 313 319 321 321 322 325 327 328 335 335 336
308 310 313 314 315 314 312 312 307 301 299 297 296 295 295 290 288 287 287 287 287 287 288 288 287 288 288 288 289 289 289 290 293 294 294 298 299 303 305 313 319 320 322 323 324 327 328 330 334
308 310 309 312 312 312 310 306 305 300 300 298 296 295 292 292 287 286 287 287 287 287 287 287 287 287 287 287 288 288 288 289 290 290 291 292 295 297 301 308 315 315 320 321 320 322 321 325 325
310 309 314 312 317 316 309 309 308 305 302 298 291 291 294 292 285 285 286 286 287 287 286 287 287 287 287 287 287 288 287 287 288 287 288 289 291 293 297 299 303 308 312 316 312 303 308 311 308
311 312 313 314 313 313 307 309 305 306 301 295 291 294 292 288 283 283 285 286 287 286 286 286 286 286 286 287 287 287 287 286 286 286 286 287 289 291 293 294 294 296 297 302 308 297 298 297 299
312 313 314 316 314 315 305 305 300 299 297 295 294 295 291 287 283 283 285 286 287 286 286 286 286 285 286 286 286 286 286 285 285 284 284 285 286 288 289 292 291 291 291 292 292 293 292 291 291

GFSSGP_925_thetae_144.txt.gz
Theta_e
315 318 317 313 313 307 312 315 311 314 315 323 327 328 331 333 337 342 342 345 345 342 340 340 340 341 339 338 338 334 333 332 332 331 332 336 339 339 339 339 338 339 338 336 336 335 333 334 335
317 317 314 307 312 308 308 312 314 315 315 317 324 323 331 338 334 337 345 348 346 342 340 339 338 339 339 339 339 338 333 333 333 332 331 332 333 333 333 332 332 333 333 334 334 334 334 335 336
318 315 312 309 308 313 315 315 312 312 316 313 327 327 330 331 334 341 347 346 345 342 341 339 339 339 339 338 338 339 337 334 334 334 333 333 333 334 334 334 333 333 333 334 335 336 335 335 336
317 311 308 313 318 317 315 311 309 313 319 320 323 322 322 312 325 337 346 345 344 343 342 342 341 341 341 339 338 338 339 335 335 335 335 334 333 333 334 335 335 334 334 335 336 336 335 335 335
312 307 313 314 318 316 314 310 313 319 319 314 314 310 311 308 324 339 334 343 343 343 343 342 342 342 342 343 343 340 339 339 335 335 336 336 336 336 337 336 335 335 335 335 335 336 336 336 336
309 307 313 315 316 314 313 310 307 312 313 312 309 310 309 306 311 310 314 320 327 328 328 335 339 341 341 342 344 344 344 341 339 336 337 337 337 337 337 336 335 335 335 336 336 336 336 336 335
308 308 312 313 314 314 313 309 307 308 307 309 311 308 306 304 309 309 309 310 310 311 312 313 319 330 339 342 341 342 344 342 342 338 337 338 338 337 336 336 336 334 334 335 336 336 335 335 334
304 307 312 312 313 312 309 311 307 306 306 307 307 306 304 305 308 307 308 308 307 307 307 307 309 311 321 326 337 339 340 341 342 341 339 338 338 338 337 337 336 335 335 334 335 335 335 334 333
304 306 309 312 309 310 308 308 307 305 306 305 306 307 307 307 306 304 305 305 304 304 303 304 305 306 308 311 315 324 336 337 339 340 340 341 340 339 338 337 337 336 335 335 335 335 335 334 333
303 305 309 309 307 307 307 308 308 306 306 305 308 306 304 302 302 301 300 299 299 299 300 300 302 303 304 305 307 309 314 326 334 336 338 339 339 340 340 338 337 337 337 336 335 336 335 334 334
304 306 306 308 306 306 306 307 307 306 305 304 308 304 302 300 299 299 298 297 296 296 296 298 299 300 301 303 304 305 306 309 316 330 334 337 340 343 342 341 339 338 337 337 337 336 335 334 334
305 304 305 305 305 306 305 306 305 304 306 306 302 301 299 298 298 297 297 296 295 295 294 295 296 297 299 299 301 302 303 304 305 310 320 335 334 335 337 343 341 339 338 338 337 337 335 334 334
304 305 305 305 304 304 306 305 304 307 305 302 300 299 298 297 296 296 295 294 294 293 294 294 294 295 296 297 298 300 301 302 303 304 307 314 331 333 336 336 338 342 340 342 341 337 336 335 334
304 305 304 303 305 305 305 306 306 306 303 302 300 298 297 296 295 295 294 293 293 292 292 293 294 294 295 295 296 297 298 300 301 302 303 304 311 321 332 336 337 337 341 341 340 341 336 336 334
305 305 304 304 305 303 303 304 306 305 303 302 300 299 297 296 294 294 293 292 292 292 292 292 292 294 295 296 296 295 295 297 299 300 301 302 303 306 316 330 336 338 339 340 338 338 339 336 336
306 304 305 304 304 305 303 304 305 302 301 299 298 297 296 295 294 293 293 292 291 290 290 291 291 292 292 293 293 295 296 295 297 298 300 301 302 304 309 313 330 334 338 339 336 335 335 336 337
301 303 305 305 304 304 303 304 302 301 300 298 296 295 295 294 293 293 292 291 290 290 289 290 290 291 291 292 292 292 293 295 296 297 299 301 302 303 307 315 312 328 331 337 337 335 335 333 335
303 305 304 304 303 304 303 305 302 299 298 297 295 295 294 294 293 293 292 291 290 289 289 289 289 290 291 291 291 292 292 293 294 296 299 301 303 304 304 305 309 312 323 330 337 336 334 334 334
306 305 305 303 302 305 303 304 303 300 298 297 296 294 294 293 293 292 291 290 289 289 288 288 289 290 290 291 291 291 292 293 294 296 298 300 301 303 304 306 308 310 314 320 330 336 335 335 333
305 305 304 303 303 303 303 304 302 301 299 297 296 294 293 292 292 292 290 289 288 288 288 288 289 289 290 290 291 291 292 292 294 295 297 300 301 302 304 307 312 317 321 323 325 327 336 335 333
305 305 304 305 305 304 304 304 303 301 299 297 295 294 293 292 291 290 290 288 288 288 288 288 289 289 289 289 290 291 292 293 294 295 297 299 300 302 304 306 307 307 309 311 327 328 335 335 334
306 305 306 304 306 305 304 306 305 302 301 299 296 293 292 291 290 289 289 288 288 288 288 288 288 288 289 289 289 290 291 292 293 295 296 298 300 302 303 305 306 307 310 314 322 328 326 325 334
306 306 305 305 306 307 306 306 305 303 303 300 297 294 292 290 289 288 287 287 288 288 288 288 288 288 288 288 289 289 290 291 292 294 296 299 301 302 304 306 308 309 310 316 318 328 329 325 326
307 308 308 307 305 308 307 306 309 305 304 300 297 295 293 290 288 287 287 287 288 287 288 288 288 288 287 287 288 288 289 290 291 292 295 296 298 301 303 308 310 312 312 315 316 324 329 326 330
306 307 312 311 310 310 307 307 307 303 300 299 296 294 293 289 287 286 286 287 288 287 287 287 287 287 287 287 287 288 288 288 290 291 291 293 295 297 300 301 304 313 317 317 320 325 328 328 329
306 307 310 312 313 311 309 309 307 301 298 297 295 294 293 289 287 286 286 286 287 286 286 287 287 287 287 287 287 287 287 287 288 288 288 289 291 292 295 299 304 313 318 320 323 322 323 325 324
307 308 308 311 312 315 311 304 304 299 298 296 295 293 289 286 285 285 286 286 286 286 286 286 286 286 286 286 286 287 286 286 286 286 286 287 288 290 294 296 300 305 311 318 320 321 324 326 325
309 309 314 315 318 316 309 309 308 304 302 297 290 287 290 286 284 284 285 285 286 286 285 285 285 285 286 285 285 286 285 284 284 284 285 285 286 287 290 292 294 296 301 303 310 307 307 309 304
312 311 313 313 314 314 306 308 303 302 303 296 290 288 286 285 281 279 284 285 286 286 285 285 285 285 285 285 285 284 284 283 283 282 283 284 285 285 287 288 290 292 293 295 297 296 296 298 296
312 313 314 317 318 315 307 310 299 300 299 294 292 292 289 283 281 280 284 285 285 285 285 285 284 284 284 284 284 283 283 282 281 281 281 282 284 284 284 286 287 288 290 290 290 290 290 291 291

GFSSGP_925_thetae_147.txt.gz
Theta_e
316 317 317 314 320 316 317 317 313 319 331 329 332 336 339 338 344 352 345 346 344 342 342 341 341 341 339 338 336 333 333 334 335 337 338 340 341 342 340 339 339 342 344 340 335 337 335 334 335
317 317 314 314 320 316 317 315 317 317 323 322 333 331 335 339 340 346 347 346 344 344 343 343 341 341 340 339 339 336 333 333 334 337 339 340 340 340 338 337 338 340 340 336 334 335 333 334 335
317 315 319 318 316 319 319 317 314 317 319 317 334 332 331 318 324 332 329 339 339 339 341 343 344 344 344 344 341 340 335 334 333 333 334 335 334 334 334 333 333 333 332 332 333 333 335 335 335
316 315 314 321 319 317 315 315 312 316 325 326 329 323 312 312 317 313 319 335 337 337 338 338 340 341 342 344 344 343 342 335 334 334 335 335 334 333 333 332 331 331 332 333 334 335 335 335 335
311 315 320 320 319 317 315 312 315 320 317 319 314 311 313 308 310 311 313 319 322 322 325 333 339 340 339 341 342 344 343 342 337 336 336 336 336 335 335 335 334 334 334 334 335 335 335 335 335
316 314 320 320 318 316 315 312 310 312 312 311 311 310 308 308 309 308 307 310 311 313 314 318 325 334 339 340 340 341 342 343 343 339 338 336 336 336 337 338 337 336 336 335 335 335 335 336 335
315 316 317 318 317 315 313 311 309 310 311 310 311 309 308 309 308 306 304 305 305 306 308 308 309 312 320 324 332 338 339 341 342 342 340 338 337 337 337 338 337 336 336 336 335 335 335 336 336
312 314 314 315 317 314 310 311 309 309 309 308 307 309 309 308 305 304 303 303 304 304 304 304 305 306 307 309 311 325 335 337 339 340 341 340 338 338 338 338 338 337 336 336 335 335 335 335 335
307 315 316 316 313 311 309 309 308 306 309 310 309 309 306 304 303 303 302 301 302 302 301 302 303 303 304 305 306 307 312 324 334 336 337 339 340 338 338 340 339 337 337 336 336 335 335 335 335
310 313 314 312 309 309 308 309 308 308 308 309 308 305 303 302 302 301 300 300 299 298 298 299 300 302 303 303 304 305 305 306 309 321 331 334 336 339 340 339 338 338 337 337 336 336 336 335 337
307 312 309 310 308 307 308 309 307 307 307 308 310 304 302 301 300 300 299 297 296 296 296 296 297 298 299 300 302 303 304 305 305 305 309 320 333 336 336 336 340 340 339 339 339 338 338 338 337
308 305 306 306 306 306 307 307 307 309 307 304 303 301 300 300 299 298 297 296 295 295 295 295 295 296 297 298 299 300 301 303 304 304 304 305 311 328 335 335 335 337 341 341 343 340 339 338 337
306 306 307 307 306 306 306 306 309 307 303 302 300 300 299 298 297 296 295 295 294 294 294 294 294 295 295 296 296 297 298 300 301 302 302 302 303 311 321 332 335 335 335 339 337 338 340 337 337
305 306 307 306 307 306 307 307 307 306 303 302 301 299 298 297 296 296 295 295 294 293 293 293 293 294 293 294 295 295 296 297 298 300 301 301 306 305 304 313 325 335 336 335 336 336 339 339 337
305 307 307 306 306 307 306 307 308 306 303 302 300 299 298 296 296 295 294 294 293 293 292 292 293 293 293 293 294 294 295 295 296 298 300 300 302 305 308 305 310 322 333 334 336 335 336 337 337
307 306 308 306 306 304 307 309 306 304 303 301 300 299 298 297 295 294 293 293 292 292 292 291 292 292 293 293 293 294 294 295 296 297 298 300 302 304 305 309 311 317 319 331 336 336 335 335 336
304 307 307 308 305 305 305 306 305 303 303 301 299 298 298 297 296 294 293 292 292 291 291 291 291 292 292 293 293 294 294 295 295 296 297 299 301 303 305 307 309 312 314 316 328 337 335 335 335
307 308 307 308 305 305 306 307 304 303 303 302 300 299 298 297 295 294 292 291 291 290 290 290 291 291 292 292 293 293 294 294 294 295 296 297 299 300 302 304 306 307 310 314 315 329 337 335 334
306 306 307 307 306 307 308 306 306 303 302 301 300 299 298 296 294 293 292 291 290 290 290 290 291 291 291 291 291 291 292 293 293 294 295 296 298 300 301 304 306 307 310 314 316 318 331 335 335
306 307 308 307 306 306 307 307 305 303 303 302 301 298 297 296 295 293 292 291 290 290 290 290 290 290 290 290 290 291 291 292 292 294 294 295 296 298 300 302 304 306 309 312 317 318 322 324 333
307 307 307 308 307 306 306 308 307 304 302 299 298 296 295 295 294 293 291 290 290 290 289 289 289 289 289 289 289 289 290 291 292 292 293 295 296 298 300 301 303 305 308 309 310 315 320 325 324
308 306 307 308 307 310 307 312 309 306 304 301 299 297 296 294 293 291 291 290 290 289 289 289 289 289 289 288 288 289 289 290 290 291 292 294 296 298 300 301 303 304 304 307 309 311 314 323 329
307 307 308 308 308 308 308 309 311 306 306 305 300 297 296 293 292 292 290 289 290 289 289 289 289 289 288 288 288 288 289 289 289 290 291 292 293 295 298 300 302 304 306 307 308 311 314 321 328
306 306 309 308 308 310 309 309 312 311 309 304 300 297 295 293 292 290 289 289 290 289 288 289 289 288 288 288 287 288 288 288 288 288 289 289 291 292 293 295 297 300 302 305 309 312 315 318 327
305 307 311 312 313 313 309 309 311 307 304 304 301 297 295 292 291 290 289 289 288 288 287 288 288 288 287 287 287 287 286 287 287 287 287 288 288 289 291 294 296 298 302 307 311 314 314 317 327
306 307 311 314 313 313 310 311 313 304 300 299 298 296 294 292 290 290 288 287 287 287 287 287 287 287 287 287 286 286 285 285 286 285 285 286 287 288 290 292 294 296 300 304 313 315 317 320 324
309 309 308 310 311 317 313 315 306 301 300 298 297 296 293 291 290 289 288 287 286 286 286 286 286 286 286 286 286 285 284 284 283 283 284 285 286 287 288 289 290 293 295 299 305 316 317 319 323
310 309 313 314 317 318 314 314 316 306 303 299 296 295 294 289 288 288 287 286 285 285 285 285 285 284 285 285 285 284 283 283 282 283 282 285 285 286 286 287 287 289 291 292 295 299 303 308 309
312 312 313 314 315 318 317 316 308 307 306 301 296 293 291 290 287 286 285 285 284 284 284 284 284 283 283 283 283 283 283 282 282 281 281 282 283 284 285 285 285 286 287 288 290 292 293 294 295
310 310 312 316 316 317 316 319 302 302 304 301 296 294 290 288 287 284 284 284 284 284 283 283 282 283 282 281 281 281 281 280 280 280 280 281 282 282 283 284 285 284 284 285 286 287 288 289 290

GFSSGP_925_thetae_150.txt.gz
Theta_e
320 319 319 321 325 322 322 322 321 326 331 333 333 337 345 346 351 355 345 346 346 346 346 345 346 343 340 339 335 333 334 335 340 341 342 340 338 338 339 339 340 342 341 340 336 337 337 334 335
317 319 320 323 324 322 322 322 323 329 332 333 334 337 341 343 340 343 334 329 340 337 339 342 344 344 344 342 340 336 334 335 338 341 342 340 339 340 340 339 339 339 342 341 336 336 336 334 335
317 316 324 324 323 322 323 322 321 325 326 328 335 331 328 330 324 324 319 324 326 327 331 339 341 342 344 344 343 343 338 335 335 341 343 343 343 342 340 339 339 339 340 337 335 335 335 335 336
319 322 323 325 323 322 321 322 321 327 324 329 328 324 322 315 317 315 315 321 322 321 323 337 339 340 341 342 344 344 343 340 336 335 336 338 339 339 338 338 337 337 334 331 333 334 334 335 336
319 322 324 324 323 321 320 319 323 325 326 328 323 324 323 313 313 312 314 315 315 314 315 316 332 338 340 340 341 342 343 343 341 339 337 336 335 334 335 334 333 332 331 333 334 335 336 335 335
320 321 323 324 323 320 318 318 322 323 322 319 322 324 320 314 314 311 311 310 310 310 310 311 312 320 326 336 339 339 341 342 343 341 339 339 337 335 335 336 335 335 334 334 335 337 337 336 335
319 319 322 322 322 321 318 317 320 320 319 317 318 319 317 315 311 309 308 308 308 307 306 306 307 308 312 312 327 335 337 338 340 341 341 340 339 339 337 336 337 337 336 336 337 337 336 336 336
318 319 319 321 322 321 316 314 314 318 314 312 314 317 318 314 309 309 308 307 307 306 305 304 305 305 305 307 306 311 321 330 334 335 338 339 339 338 339 338 337 337 337 337 337 337 336 336 336
315 318 319 320 321 318 314 314 312 312 314 313 313 314 312 309 308 309 309 308 306 305 304 303 303 303 304 305 306 306 307 308 312 325 330 333 340 342 342 341 339 339 337 337 336 336 337 336 336
315 317 318 318 317 315 313 313 312 313 314 314 312 309 308 308 308 308 307 307 305 304 303 302 302 302 303 303 304 305 306 308 309 310 311 317 324 335 339 339 339 339 338 336 337 337 337 337 337
314 316 316 314 313 313 313 313 312 312 313 314 314 310 308 308 307 307 306 304 303 303 302 301 301 302 302 302 303 304 305 306 308 309 311 310 313 323 333 340 340 341 340 339 339 340 339 338 337
312 311 312 312 311 312 313 312 313 314 312 310 310 308 307 307 306 305 304 303 303 302 301 301 300 301 301 301 302 302 304 304 306 307 308 310 311 312 319 330 337 340 340 340 341 339 340 339 338
310 310 310 311 311 311 311 311 314 311 308 307 306 306 306 306 305 304 303 303 302 301 301 300 300 300 300 301 301 302 302 303 303 305 307 308 309 311 315 315 321 334 339 340 338 339 340 340 339
310 310 310 310 311 311 311 312 312 310 308 307 307 306 305 304 303 304 303 302 301 300 300 300 299 299 300 301 301 301 301 301 302 303 305 306 307 308 310 311 314 321 330 338 340 337 338 338 339
308 309 310 310 310 310 310 311 311 311 308 308 307 305 305 303 303 302 301 301 300 300 299 299 298 299 299 300 300 300 301 301 301 302 303 303 305 307 309 310 311 313 317 326 334 338 338 337 338
309 311 314 311 311 310 310 313 312 310 309 309 307 306 305 304 302 301 300 299 299 299 298 298 298 298 298 299 299 300 300 300 301 301 301 302 303 305 306 308 310 312 314 319 324 329 337 338 337
311 314 313 313 310 310 311 314 312 310 309 309 308 307 306 304 303 301 299 298 298 297 297 297 297 298 297 298 298 298 299 299 299 300 300 301 301 302 304 304 305 309 310 313 318 322 328 336 337
314 312 312 313 312 310 311 312 312 310 310 310 309 308 306 305 303 300 298 298 297 297 297 297 297 297 296 297 297 297 297 298 298 298 299 299 299 299 300 301 303 306 310 311 312 315 322 326 336
311 311 312 313 312 310 312 313 313 311 310 311 310 308 307 304 300 299 298 298 297 297 297 296 296 296 295 295 295 295 295 295 296 296 296 296 298 298 299 300 301 303 308 311 312 314 319 323 325
311 312 314 314 313 312 313 314 313 312 310 311 310 309 306 303 301 299 298 298 297 297 296 296 296 295 294 293 293 293 293 294 294 295 295 296 296 297 299 299 301 302 304 306 310 313 316 317 323
314 315 315 314 313 313 313 314 314 311 310 309 308 307 303 302 301 300 298 298 297 297 296 295 294 294 293 292 292 292 293 293 294 293 293 293 294 296 297 298 300 302 303 304 305 311 312 316 320
312 312 311 311 313 314 313 314 314 314 311 308 307 305 304 301 300 299 298 297 297 296 295 295 294 294 293 291 291 291 291 292 291 291 291 292 293 293 294 295 296 298 301 305 306 307 310 313 316
311 309 310 310 312 313 313 313 313 313 312 311 308 305 303 300 299 298 296 296 296 295 295 295 294 294 292 291 291 290 290 290 290 290 290 291 291 291 291 292 294 295 298 300 303 305 308 311 314
310 310 311 313 313 315 313 314 313 316 314 312 309 305 302 300 298 296 295 295 296 295 294 294 293 293 292 291 290 289 289 288 288 288 289 289 289 289 290 290 293 295 297 300 303 304 307 309 313
311 312 316 315 317 316 313 313 314 313 311 310 309 305 302 299 299 297 295 294 294 294 293 292 292 292 291 290 289 288 288 287 287 287 287 288 288 288 288 289 291 293 295 297 299 303 308 311 314
310 312 314 316 314 316 315 314 317 310 307 307 306 303 300 298 297 295 293 292 292 292 292 292 292 290 290 289 289 288 287 286 286 286 286 287 286 288 287 287 289 290 292 293 297 304 308 314 314
312 312 312 313 314 316 314 318 315 309 306 306 303 302 298 297 296 294 292 291 290 290 290 290 290 287 289 288 288 287 287 286 286 285 285 286 286 287 287 286 287 288 289 291 294 296 297 307 314
310 311 314 315 317 316 315 315 317 315 311 304 302 302 300 295 294 293 291 289 288 288 289 288 287 286 287 288 287 287 286 286 285 285 285 285 285 285 286 286 285 286 286 289 289 289 291 294 299
313 313 313 314 317 317 317 316 316 315 312 309 303 301 297 295 292 290 289 288 287 286 288 287 286 284 284 285 285 285 284 284 284 284 283 284 284 284 284 285 284 284 284 285 285 286 287 288 289
310 311 311 316 315 317 319 320 309 310 311 309 304 300 296 293 291 289 288 287 286 286 285 285 285 285 283 282 283 284 282 282 282 282 282 282 282 282 282 282 282 282 283 283 283 283 283 284 286